KD7KJJ Weather Reports


time (UTC)temp
C
wind
direction
speed
KPH
gust
KPH
rain 1hr
cm
rain 24hr
cm
rain mn
cm
humidity
%
barometer
mb
20260505201907 29 133 3.2 12.9 0.00 0.00 0.00 64 1005.2
20260505201807 29 132 4.8 12.9 0.00 0.00 0.00 64 1005.3
20260505201707 29 144 4.8 12.9 0.00 0.00 0.00 64 1005.3
20260505201607 29 143 6.4 12.9 0.00 0.00 0.00 65 1005.2
20260505201528 29 137 4.8 12.9 0.00 0.00 0.00 65 1005.3
20260505201407 29 0 0.0 9.7 0.00 0.00 0.00 66 1005.4
20260505201307 28 121 0.0 9.7 0.00 0.00 0.00 65 1005.3
20260505201207 28 118 1.6 9.7 0.00 0.00 0.00 65 1005.3
20260505201107 28 118 1.6 9.7 0.00 0.00 0.00 65 1005.4
20260505201007 28 122 4.8 9.7 0.00 0.00 0.00 65 1005.4
20260505200907 28 119 4.8 9.7 0.00 0.00 0.00 65 1005.5
20260505200807 28 122 3.2 9.7 0.00 0.00 0.00 65 1005.3
20260505200728 28 125 3.2 9.7 0.00 0.00 0.00 65 1005.3
20260505200607 29 135 3.2 9.7 0.00 0.00 0.00 65 1005.3
20260505200528 29 138 3.2 9.7 0.00 0.00 0.00 65 1005.5
20260505200428 29 139 4.8 9.7 0.00 0.00 0.00 65 1005.1
20260505200307 29 149 1.6 9.7 0.00 0.00 0.00 65 1005.3
20260505200207 28 157 1.6 9.7 0.00 0.00 0.00 64 1005.2
20260505200107 28 163 3.2 9.7 0.00 0.00 0.00 64 1005.3
20260505200007 28 169 3.2 9.7 0.00 0.00 0.00 64 1005.3
20260505195907 28 174 3.2 9.7 0.00 0.00 0.00 65 1005.4
20260505195828 28 174 3.2 9.7 0.00 0.00 0.00 65 1005.4
20260505195707 28 172 3.2 9.7 0.00 0.00 0.00 65 1005.4
20260505195607 28 171 3.2 9.7 0.00 0.00 0.00 65 1005.3
20260505195507 28 174 1.6 9.7 0.00 0.00 0.00 66 1005.3
20260505195407 28 178 3.2 9.7 0.00 0.00 0.00 66 1005.3
20260505195307 28 178 1.6 9.7 0.00 0.00 0.00 66 1005.3
20260505195207 28 181 4.8 9.7 0.00 0.00 0.00 65 1005.3
20260505195107 28 181 4.8 9.7 0.00 0.00 0.00 66 1005.3
20260505195028 28 178 3.2 9.7 0.00 0.00 0.00 66 1005.3
20260505194907 28 178 3.2 9.7 0.00 0.00 0.00 66 1005.4
20260505194807 28 176 3.2 9.7 0.00 0.00 0.00 66 1005.3
20260505194707 28 175 3.2 9.7 0.00 0.00 0.00 66 1005.4
20260505194607 28 174 3.2 9.7 0.00 0.00 0.00 67 1005.3
20260505194528 28 175 1.6 9.7 0.00 0.00 0.00 66 1005.4
20260505194407 28 170 3.2 9.7 0.00 0.00 0.00 67 1005.4
20260505194307 28 164 3.2 9.7 0.00 0.00 0.00 66 1005.5
20260505194228 28 158 3.2 9.7 0.00 0.00 0.00 66 1005.5
20260505194107 28 145 3.2 9.7 0.00 0.00 0.00 66 1005.5
20260505194007 28 141 4.8 12.9 0.00 0.00 0.00 66 1005.5
20260505193907 27 130 1.6 12.9 0.00 0.00 0.00 68 1005.5
20260505193807 27 128 0.0 12.9 0.00 0.00 0.00 69 1005.5
20260505193707 27 122 1.6 12.9 0.00 0.00 0.00 69 1005.5
20260505193607 27 124 1.6 12.9 0.00 0.00 0.00 68 1005.4
20260505193507 27 122 3.2 12.9 0.00 0.00 0.00 68 1005.4
20260505193407 27 120 3.2 12.9 0.00 0.00 0.00 67 1005.5
20260505193307 27 122 3.2 12.9 0.00 0.00 0.00 68 1005.5
20260505193207 27 120 6.4 12.9 0.00 0.00 0.00 67 1005.5
20260505193107 27 123 6.4 12.9 0.00 0.00 0.00 68 1005.5
20260505193028 27 123 4.8 12.9 0.00 0.00 0.00 68 1005.5
20260505192907 27 124 4.8 11.3 0.00 0.00 0.00 68 1005.5
20260505192807 27 129 4.8 11.3 0.00 0.00 0.00 68 1005.4
20260505192707 26 132 3.2 11.3 0.00 0.00 0.00 69 1005.3
20260505192628 26 132 3.2 11.3 0.00 0.00 0.00 69 1005.3
20260505192507 26 128 3.2 11.3 0.00 0.00 0.00 70 1005.5
20260505192407 26 129 4.8 11.3 0.00 0.00 0.00 70 1005.5
20260505192307 26 133 4.8 11.3 0.00 0.00 0.00 70 1005.5
20260505192207 26 144 3.2 11.3 0.00 0.00 0.00 70 1005.5
20260505192107 26 151 3.2 11.3 0.00 0.00 0.00 71 1005.5
20260505192007 26 161 1.6 11.3 0.00 0.00 0.00 71 1005.5
20260505191907 26 167 1.6 11.3 0.00 0.00 0.00 71 1005.5
20260505191807 26 165 3.2 11.3 0.00 0.00 0.00 71 1005.5
20260505191707 26 164 3.2 16.1 0.00 0.00 0.00 71 1005.5
20260505191628 26 158 3.2 16.1 0.00 0.00 0.00 71 1005.5
20260505191528 26 158 3.2 16.1 0.00 0.00 0.00 71 1005.5
20260505191407 26 165 3.2 16.1 0.00 0.00 0.00 71 1005.5
20260505191307 26 153 3.2 16.1 0.00 0.00 0.00 71 1005.6
20260505191207 26 150 4.8 16.1 0.00 0.00 0.00 71 1005.5
20260505191107 26 147 4.8 16.1 0.00 0.00 0.00 71 1005.5
20260505191007 26 143 4.8 16.1 0.00 0.00 0.00 71 1005.5
20260505190907 26 135 3.2 16.1 0.00 0.00 0.00 72 1005.6
20260505190807 26 135 4.8 16.1 0.00 0.00 0.00 72 1005.6
20260505190707 26 134 4.8 16.1 0.00 0.00 0.00 71 1005.6
20260505190607 26 144 3.2 8.0 0.00 0.00 0.00 72 1005.6
20260505190507 26 146 3.2 8.0 0.00 0.00 0.00 72 1005.5
20260505190428 26 144 1.6 9.7 0.00 0.00 0.00 72 1005.6
20260505190328 26 151 1.6 9.7 0.00 0.00 0.00 73 1005.7
20260505190228 26 150 3.2 9.7 0.00 0.00 0.00 72 1005.6
20260505190107 26 148 3.2 9.7 0.00 0.00 0.00 72 1005.6
20260505190028 26 144 3.2 9.7 0.00 0.00 0.00 73 1005.7
20260505185907 25 156 3.2 9.7 0.00 0.00 0.00 73 1005.7
20260505185807 25 160 1.6 9.7 0.00 0.00 0.00 73 1005.7
20260505185707 25 158 1.6 9.7 0.00 0.00 0.00 73 1005.8
20260505185607 25 152 1.6 9.7 0.00 0.00 0.00 73 1005.6
20260505185507 25 147 4.8 9.7 0.00 0.00 0.00 73 1005.7
20260505185407 25 147 3.2 9.7 0.00 0.00 0.00 73 1005.5
20260505185307 25 147 3.2 9.7 0.00 0.00 0.00 73 1005.7
20260505185228 25 149 3.2 9.7 0.00 0.00 0.00 73 1005.8
20260505185107 25 156 3.2 9.7 0.00 0.00 0.00 73 1005.8
20260505185007 25 160 4.8 9.7 0.00 0.00 0.00 74 1005.6
20260505184907 25 152 3.2 9.7 0.00 0.00 0.00 74 1005.8
20260505184807 25 154 3.2 11.3 0.00 0.00 0.00 74 1005.7
20260505184707 25 154 4.8 11.3 0.00 0.00 0.00 74 1005.7
20260505184607 25 160 4.8 11.3 0.00 0.00 0.00 74 1005.8
20260505184507 25 160 4.8 11.3 0.00 0.00 0.00 74 1005.8
20260505184407 25 169 4.8 11.3 0.00 0.00 0.00 75 1005.8
20260505184328 25 165 3.2 11.3 0.00 0.00 0.00 75 1005.7
20260505184207 25 156 4.8 11.3 0.00 0.00 0.00 74 1005.7
20260505184107 25 148 4.8 11.3 0.00 0.00 0.00 74 1005.7
20260505184007 25 142 3.2 12.9 0.00 0.00 0.00 74 1005.6
20260505183907 25 147 3.2 12.9 0.00 0.00 0.00 75 1005.8
20260505183807 24 145 4.8 12.9 0.00 0.00 0.00 74 1005.8
20260505183728 24 150 3.2 12.9 0.00 0.00 0.00 74 1005.7
20260505183607 24 155 3.2 12.9 0.00 0.00 0.00 73 1005.7
20260505183528 24 157 3.2 12.9 0.00 0.00 0.00 74 1005.9
20260505183407 24 157 4.8 12.9 0.00 0.00 0.00 74 1005.8
20260505183307 24 164 4.8 12.9 0.00 0.00 0.00 74 1005.9
20260505183207 24 163 4.8 12.9 0.00 0.00 0.00 75 1005.8
20260505183128 24 162 4.8 12.9 0.00 0.00 0.00 75 1005.8
20260505183007 24 165 3.2 11.3 0.00 0.00 0.00 74 1005.8
20260505182907 24 161 4.8 11.3 0.00 0.00 0.00 75 1005.8
20260505182807 24 155 3.2 11.3 0.00 0.00 0.00 75 1006.0
20260505182707 24 153 3.2 11.3 0.00 0.00 0.00 75 1005.9
20260505182607 24 151 3.2 11.3 0.00 0.00 0.00 75 1005.8
20260505182528 24 148 3.2 11.3 0.00 0.00 0.00 74 1005.8
20260505182407 24 146 6.4 11.3 0.00 0.00 0.00 74 1005.9
20260505182328 24 143 4.8 11.3 0.00 0.00 0.00 75 1005.9
20260505182207 23 137 3.2 11.3 0.00 0.00 0.00 75 1005.8
20260505182128 23 137 4.8 11.3 0.00 0.00 0.00 75 1005.8
20260505182007 23 135 4.8 11.3 0.00 0.00 0.00 74 1005.8
20260505181907 23 139 4.8 9.7 0.00 0.00 0.00 76 1005.8
20260505181807 23 133 4.8 9.7 0.00 0.00 0.00 75 1005.8
20260505181707 23 136 4.8 9.7 0.00 0.00 0.00 76 1005.8
20260505181607 23 131 3.2 9.7 0.00 0.00 0.00 76 1005.9
20260505181507 23 131 3.2 9.7 0.00 0.00 0.00 76 1005.9
20260505181407 23 131 3.2 9.7 0.00 0.00 0.00 77 1005.8
20260505181307 23 136 3.2 11.3 0.00 0.00 0.00 77 1005.7
20260505181207 23 142 3.2 11.3 0.00 0.00 0.00 77 1005.8
20260505181107 23 146 3.2 11.3 0.00 0.00 0.00 77 1005.9
20260505181028 23 148 3.2 11.3 0.00 0.00 0.00 77 1005.8
20260505180907 23 138 3.2 11.3 0.00 0.00 0.00 77 1006.0
20260505180828 23 139 3.2 11.3 0.00 0.00 0.00 78 1005.8
20260505180707 23 133 4.8 11.3 0.00 0.00 0.00 77 1005.8
20260505180628 23 131 4.8 11.3 0.00 0.00 0.00 77 1005.8
20260505180507 23 138 3.2 11.3 0.00 0.00 0.00 77 1005.8
20260505180407 23 133 4.8 11.3 0.00 0.00 0.00 78 1005.8
20260505180307 23 132 4.8 11.3 0.00 0.00 0.00 78 1006.0
20260505180207 23 132 4.8 11.3 0.00 0.00 0.00 78 1005.9
20260505180107 22 128 4.8 11.3 0.00 0.00 0.00 78 1006.0
20260505180007 22 132 3.2 9.7 0.00 0.00 0.00 78 1005.8
20260505175907 22 138 4.8 9.7 0.00 0.00 0.00 79 1005.8
20260505175807 22 140 3.2 9.7 0.00 0.00 0.00 79 1005.8
20260505175707 22 144 1.6 9.7 0.00 0.00 0.00 79 1005.8
20260505175607 22 143 3.2 9.7 0.00 0.00 0.00 79 1006.0
20260505175507 22 130 3.2 9.7 0.00 0.00 0.00 79 1005.8
20260505175407 22 138 1.6 9.7 0.00 0.00 0.00 79 1006.0
20260505175307 22 136 1.6 9.7 0.00 0.00 0.00 80 1005.9
20260505175207 22 134 4.8 9.7 0.00 0.00 0.00 80 1006.0
20260505175107 22 138 4.8 9.7 0.00 0.00 0.00 80 1005.9
20260505175007 22 130 1.6 9.7 0.00 0.00 0.00 80 1005.9
20260505174907 22 125 1.6 9.7 0.00 0.00 0.00 80 1005.9
20260505174828 22 123 1.6 9.7 0.00 0.00 0.00 80 1005.9
20260505174707 22 124 3.2 9.7 0.00 0.00 0.00 80 1006.0
20260505174607 22 126 3.2 9.7 0.00 0.00 0.00 80 1006.0
20260505174507 22 131 4.8 9.7 0.00 0.00 0.00 80 1006.0
20260505174407 22 120 1.6 9.7 0.00 0.00 0.00 80 1006.0
20260505174307 22 118 1.6 9.7 0.00 0.00 0.00 80 1006.1
20260505174207 22 106 3.2 9.7 0.00 0.00 0.00 80 1005.7
20260505174107 22 103 3.2 9.7 0.00 0.00 0.00 80 1005.9
20260505174007 22 107 1.6 9.7 0.00 0.00 0.00 80 1005.9
20260505173907 22 110 3.2 9.7 0.00 0.00 0.00 80 1005.9
20260505173807 22 110 3.2 9.7 0.00 0.00 0.00 80 1006.0
20260505173707 22 115 3.2 9.7 0.00 0.00 0.00 81 1005.9
20260505173607 21 122 4.8 9.7 0.00 0.00 0.00 80 1005.8
20260505173507 21 120 4.8 9.7 0.00 0.00 0.00 80 1005.7
20260505173428 21 117 3.2 9.7 0.00 0.00 0.00 80 1005.7
20260505173307 21 109 4.8 9.7 0.00 0.00 0.00 80 1005.9
20260505173207 21 117 3.2 9.7 0.00 0.00 0.00 81 1006.0
20260505173107 21 126 3.2 9.7 0.00 0.00 0.00 81 1005.8
20260505173007 21 128 1.6 9.7 0.00 0.00 0.00 81 1005.9
20260505172907 21 131 1.6 9.7 0.00 0.00 0.00 81 1005.8
20260505172807 21 134 1.6 9.7 0.00 0.00 0.00 81 1006.0
20260505172727 21 134 4.8 9.7 0.00 0.00 0.00 81 1006.0
20260505172607 21 110 4.8 9.7 0.00 0.00 0.00 81 1005.9
20260505172507 21 111 3.2 9.7 0.00 0.00 0.00 81 1005.9
20260505172407 21 107 3.2 8.0 0.00 0.00 0.00 81 1005.9
20260505172307 21 120 3.2 8.0 0.00 0.00 0.00 82 1005.9
20260505172207 21 122 1.6 8.0 0.00 0.00 0.00 82 1005.9
20260505172107 21 115 1.6 8.0 0.00 0.00 0.00 82 1005.9
20260505172007 21 106 0.0 8.0 0.00 0.00 0.00 82 1005.9
20260505171907 21 98 1.6 8.0 0.00 0.00 0.00 82 1005.9
20260505171807 21 96 1.6 8.0 0.00 0.00 0.00 82 1005.9
20260505171706 21 90 3.2 8.0 0.00 0.00 0.00 82 1005.9
20260505171607 21 92 3.2 8.0 0.00 0.00 0.00 82 1005.9
20260505171507 21 96 4.8 8.0 0.00 0.00 0.00 81 1005.9
20260505171428 21 111 3.2 11.3 0.00 0.00 0.00 82 1005.9
20260505171307 21 118 1.6 11.3 0.00 0.00 0.00 82 1005.9
20260505171207 21 113 1.6 11.3 0.00 0.00 0.00 82 1005.7
20260505171107 21 117 1.6 11.3 0.00 0.00 0.00 82 1005.8
20260505171007 21 123 3.2 11.3 0.00 0.00 0.00 82 1005.9
20260505170906 21 131 1.6 11.3 0.00 0.00 0.00 82 1005.9
20260505170806 20 134 3.2 11.3 0.00 0.00 0.00 83 1006.0
20260505170707 20 141 1.6 11.3 0.00 0.00 0.00 83 1005.8
20260505170607 20 143 1.6 11.3 0.00 0.00 0.00 83 1005.8
20260505170507 20 140 4.8 11.3 0.00 0.00 0.00 82 1005.9
20260505170407 20 129 3.2 9.7 0.00 0.00 0.00 83 1005.9
20260505170307 20 135 3.2 9.7 0.00 0.00 0.00 83 1005.8
20260505170207 20 136 3.2 9.7 0.00 0.00 0.00 83 1005.9
20260505170107 20 134 4.8 9.7 0.00 0.00 0.00 83 1005.8
20260505170007 20 134 3.2 8.0 0.00 0.00 0.00 83 1005.9
20260505165907 20 132 1.6 11.3 0.00 0.00 0.00 83 1005.9
20260505165828 20 126 1.6 11.3 0.00 0.00 0.00 83 1005.9
20260505165728 20 117 4.8 11.3 0.00 0.00 0.00 83 1005.8
20260505165607 20 108 3.2 11.3 0.00 0.00 0.00 82 1005.9
20260505165507 20 109 3.2 11.3 0.00 0.00 0.00 82 1005.9
20260505165407 20 107 3.2 11.3 0.00 0.00 0.00 83 1005.7
20260505165307 20 111 3.2 11.3 0.00 0.00 0.00 82 1005.8
20260505165207 20 109 3.2 11.3 0.00 0.00 0.00 83 1006.0
20260505165107 20 109 4.8 11.3 0.00 0.00 0.00 83 1005.8
20260505165007 20 110 4.8 11.3 0.00 0.00 0.00 83 1005.9
20260505164907 20 109 4.8 11.3 0.00 0.00 0.00 83 1005.8
20260505164806 20 120 3.2 9.7 0.00 0.00 0.00 83 1005.7
20260505164707 20 126 4.8 9.7 0.00 0.00 0.00 83 1005.8
20260505164607 20 129 4.8 11.3 0.00 0.00 0.00 83 1005.8
20260505164506 20 133 3.2 11.3 0.00 0.00 0.00 84 1005.8
20260505164428 20 135 3.2 11.3 0.00 0.00 0.00 84 1005.8
20260505164307 20 137 3.2 11.3 0.00 0.00 0.00 84 1005.8
20260505164207 20 143 3.2 11.3 0.00 0.00 0.00 84 1005.9
20260505164107 20 145 4.8 11.3 0.00 0.00 0.00 84 1005.9
20260505164007 20 145 4.8 11.3 0.00 0.00 0.00 84 1005.8
20260505163907 20 140 3.2 11.3 0.00 0.00 0.00 83 1005.9
20260505163807 20 133 3.2 11.3 0.00 0.00 0.00 83 1005.8
20260505163707 20 132 4.8 11.3 0.00 0.00 0.00 83 1005.8
20260505163607 20 127 4.8 11.3 0.00 0.00 0.00 84 1006.0
20260505163507 20 114 3.2 11.3 0.00 0.00 0.00 84 1005.8
20260505163407 20 110 1.6 11.3 0.00 0.00 0.00 84 1005.8
20260505163307 20 109 1.6 11.3 0.00 0.00 0.00 84 1006.0
20260505163207 20 107 3.2 11.3 0.00 0.00 0.00 84 1005.9
20260505163107 19 103 3.2 11.3 0.00 0.00 0.00 84 1005.9
20260505163009 19 109 4.8 11.3 0.00 0.00 0.00 84 1005.8
20260505162907 19 109 3.2 11.3 0.00 0.00 0.00 84 1005.8
20260505162807 19 116 3.2 8.0 0.00 0.00 0.00 84 1005.8
20260505162707 19 113 3.2 8.0 0.00 0.00 0.00 85 1005.7
20260505162606 19 120 1.6 8.0 0.00 0.00 0.00 85 1005.7
20260505162507 19 128 1.6 8.0 0.00 0.00 0.00 85 1005.7
20260505162407 19 132 3.2 11.3 0.00 0.00 0.00 85 1005.7
20260505162328 19 132 3.2 11.3 0.00 0.00 0.00 85 1005.7
20260505162207 19 129 3.2 11.3 0.00 0.00 0.00 86 1005.7
20260505162107 19 128 3.2 11.3 0.00 0.00 0.00 86 1005.8
20260505162007 19 118 3.2 11.3 0.00 0.00 0.00 86 1005.7
20260505161907 19 116 3.2 11.3 0.00 0.00 0.00 86 1005.6
20260505161807 19 112 3.2 11.3 0.00 0.00 0.00 86 1005.6
20260505161707 19 117 3.2 11.3 0.00 0.00 0.00 86 1005.8
20260505161606 19 121 4.8 11.3 0.00 0.00 0.00 86 1005.6
20260505161507 19 119 4.8 11.3 0.00 0.00 0.00 86 1005.7
20260505161428 18 116 4.8 11.3 0.00 0.00 0.00 86 1005.8
20260505161306 18 117 3.2 9.7 0.00 0.00 0.00 86 1005.6
20260505161228 18 119 3.2 9.7 0.00 0.00 0.00 86 1005.6
20260505161128 18 127 3.2 9.7 0.00 0.00 0.00 86 1005.7
20260505161006 18 136 3.2 9.7 0.00 0.00 0.00 86 1005.7
20260505160907 18 136 3.2 9.7 0.00 0.00 0.00 86 1005.7
20260505160807 18 136 3.2 8.0 0.00 0.00 0.00 86 1005.7
20260505160728 18 130 3.2 8.0 0.00 0.00 0.00 86 1005.7
20260505160607 18 121 3.2 8.0 0.00 0.00 0.00 86 1005.7
20260505160507 18 112 1.6 8.0 0.00 0.00 0.00 86 1005.5
20260505160407 18 107 3.2 8.0 0.00 0.00 0.00 86 1005.6
20260505160307 18 103 3.2 8.0 0.00 0.00 0.00 86 1005.8
20260505160228 18 105 3.2 8.0 0.00 0.00 0.00 86 1005.6
20260505160107 18 100 3.2 12.9 0.00 0.00 0.00 85 1005.6
20260505153307 18 170 1.6 8.0 0.00 0.00 0.00 88 1005.4
20260505153207 18 166 1.6 8.0 0.00 0.00 0.00 88 1005.4
20260505153107 18 160 1.6 6.4 0.00 0.00 0.00 88 1005.3
20260505153028 18 160 3.2 6.4 0.00 0.00 0.00 88 1005.3
20260505152907 18 158 3.2 6.4 0.00 0.00 0.00 88 1005.3
20260505152806 18 157 3.2 6.4 0.00 0.00 0.00 88 1005.3
20260505152728 18 158 3.2 6.4 0.00 0.00 0.00 88 1005.3
20260505152607 17 157 3.2 6.4 0.00 0.00 0.00 89 1005.3
20260505152506 17 157 3.2 6.4 0.00 0.00 0.00 89 1005.3
20260505152407 17 158 3.2 6.4 0.00 0.00 0.00 89 1005.4
20260505152307 17 153 3.2 6.4 0.00 0.00 0.00 89 1005.3
20260505152227 17 150 3.2 6.4 0.00 0.00 0.00 89 1005.3
20260505152107 17 147 3.2 6.4 0.00 0.00 0.00 89 1005.2
20260505152007 17 142 3.2 6.4 0.00 0.00 0.00 89 1005.2
20260505151906 17 144 4.8 6.4 0.00 0.00 0.00 89 1005.1
20260505151828 17 148 1.6 9.7 0.00 0.00 0.00 89 1005.2
20260505151707 17 155 1.6 9.7 0.00 0.00 0.00 89 1005.3
20260505151607 17 156 3.2 9.7 0.00 0.00 0.00 89 1005.1
20260505151506 17 157 3.2 9.7 0.00 0.00 0.00 89 1005.3
20260505151407 17 160 3.2 9.7 0.00 0.00 0.00 90 1005.2
20260505151307 17 162 3.2 9.7 0.00 0.00 0.00 90 1005.2
20260505151207 17 167 3.2 9.7 0.00 0.00 0.00 90 1005.2
20260505151107 17 170 3.2 9.7 0.00 0.00 0.00 90 1005.1
20260505151007 17 171 1.6 9.7 0.00 0.00 0.00 90 1005.2
20260505150906 17 175 4.8 9.7 0.00 0.00 0.00 90 1005.1
20260505150807 17 170 3.2 8.0 0.00 0.00 0.00 90 1005.1
20260505150707 17 165 3.2 6.4 0.00 0.00 0.00 90 1005.1
20260505150607 17 159 3.2 6.4 0.00 0.00 0.00 90 1005.2
20260505150507 17 153 1.6 6.4 0.00 0.00 0.00 90 1005.1
20260505150407 17 147 1.6 6.4 0.00 0.00 0.00 90 1005.1
20260505150307 17 146 3.2 6.4 0.00 0.00 0.00 90 1005.1
20260505150228 17 143 3.2 9.7 0.00 0.00 0.00 90 1005.1
20260505150107 17 139 3.2 9.7 0.00 0.00 0.00 91 1005.0
20260505140628 16 123 1.6 6.4 0.00 0.00 0.00 98 1004.5
20260505140506 16 115 1.6 6.4 0.00 0.00 0.00 98 1004.5
20260505140428 16 112 1.6 6.4 0.00 0.00 0.00 98 1004.4
20260505140328 16 109 1.6 6.4 0.00 0.00 0.00 98 1004.5
20260505140207 16 110 1.6 6.4 0.00 0.00 0.00 99 1004.5
20260505140106 16 112 1.6 6.4 0.00 0.00 0.00 99 1004.5
20260505130306 13 0 0.0 6.4 0.00 0.00 0.00 100 1003.7
20260505130207 13 0 0.0 6.4 0.00 0.00 0.00 100 1003.7
20260505130106 13 0 0.0 6.4 0.00 0.00 0.00 100 1003.7
20260505125007 13 0 0.0 6.4 0.00 0.00 0.00 100 1003.5
20260505124907 13 0 0.0 6.4 0.00 0.00 0.00 100 1003.7
20260505124806 13 178 1.6 6.4 0.00 0.00 0.00 100 1003.6
20260505124706 13 167 1.6 6.4 0.00 0.00 0.00 100 1003.6
20260505124607 13 161 1.6 6.4 0.00 0.00 0.00 100 1003.5
20260505124506 13 155 1.6 6.4 0.00 0.00 0.00 100 1003.5
20260505124407 13 152 1.6 6.4 0.00 0.00 0.00 100 1003.6
20260505124328 13 150 1.6 6.4 0.00 0.00 0.00 100 1003.5
20260505124206 13 147 1.6 6.4 0.00 0.00 0.00 100 1003.6
20260505124106 13 150 1.6 6.4 0.00 0.00 0.00 100 1003.5
20260505124007 13 152 1.6 6.4 0.00 0.00 0.00 100 1003.5
20260505123906 13 147 1.6 6.4 0.00 0.00 0.00 100 1003.5
20260505123806 14 142 3.2 6.4 0.00 0.00 0.00 100 1003.5
20260505123707 14 144 3.2 6.4 0.00 0.00 0.00 100 1003.4
20260505123627 14 145 3.2 6.4 0.00 0.00 0.00 100 1003.3
20260505123506 14 0 0.0 8.0 0.00 0.00 0.00 100 1003.5
20260505123407 14 144 0.0 8.0 0.00 0.00 0.00 100 1003.5
20260505123307 14 146 0.0 8.0 0.00 0.00 0.00 100 1003.5
20260505123227 14 146 0.0 8.0 0.00 0.00 0.00 100 1003.4
20260505123106 14 146 1.6 8.0 0.00 0.00 0.00 100 1003.2
20260505123028 14 143 1.6 8.0 0.00 0.00 0.00 100 1003.3
20260505122927 14 141 3.2 8.0 0.00 0.00 0.00 100 1003.2
20260505122806 14 149 3.2 8.0 0.00 0.00 0.00 100 1003.3
20260505122707 14 149 3.2 8.0 0.00 0.00 0.00 100 1003.4
20260505122606 14 155 3.2 8.0 0.00 0.00 0.00 100 1003.1
20260505122507 14 156 3.2 6.4 0.00 0.00 0.00 100 1003.2
20260505122406 14 160 3.2 6.4 0.00 0.00 0.00 100 1003.3
20260505122306 14 162 1.6 6.4 0.00 0.00 0.00 100 1003.2
20260505122206 14 0 0.0 6.4 0.00 0.00 0.00 100 1003.2
20260505122106 14 0 0.0 6.4 0.00 0.00 0.00 100 1003.2
20260505122007 14 0 0.0 6.4 0.00 0.00 0.00 100 1003.1
20260505121906 14 144 1.6 6.4 0.00 0.00 0.00 100 1003.1
20260505121807 14 143 1.6 6.4 0.00 0.00 0.00 100 1003.1
20260505121707 14 145 1.6 6.4 0.00 0.00 0.00 100 1003.1
20260505121606 14 143 3.2 6.4 0.00 0.00 0.00 100 1003.0
20260505121506 14 145 3.2 6.4 0.00 0.00 0.00 100 1003.1
20260505121407 14 141 1.6 6.4 0.00 0.00 0.00 100 1003.1
20260505121306 14 138 1.6 6.4 0.00 0.00 0.00 100 1003.0
20260505121206 14 142 3.2 6.4 0.00 0.00 0.00 100 1003.1
20260505121107 14 159 1.6 4.8 0.00 0.00 0.00 100 1003.1
20260505121007 14 0 0.0 3.2 0.00 0.00 0.00 100 1003.0
20260505120906 14 0 0.0 3.2 0.00 0.00 0.00 100 1003.0
20260505120828 14 0 0.0 3.2 0.00 0.00 0.00 100 1002.9
20260505120707 14 163 0.0 3.2 0.00 0.00 0.00 100 1002.9
20260505120607 14 164 1.6 3.2 0.00 0.00 0.00 100 1003.0
20260505120507 14 166 0.0 3.2 0.00 0.00 0.00 100 1003.0
20260505120427 14 168 0.0 3.2 0.00 0.00 0.00 100 1002.8
20260505120307 15 171 0.0 3.2 0.00 0.00 0.00 100 1002.9
20260505120227 15 171 1.6 3.2 0.00 0.00 0.00 100 1002.8
20260505120107 15 170 1.6 3.2 0.00 0.00 0.00 100 1002.9
20260505120006 15 170 0.0 3.2 0.00 0.00 0.00 100 1002.8
20260505115907 15 168 1.6 3.2 0.00 0.00 0.00 100 1002.9
20260505115807 15 0 0.0 3.2 0.00 0.00 0.00 100 1002.9
20260505115706 15 0 0.0 3.2 0.00 0.00 0.00 100 1002.9
20260505115606 15 172 1.6 3.2 0.00 0.00 0.00 100 1002.8
20260505115507 15 0 0.0 3.2 0.00 0.00 0.00 100 1002.8
20260505115406 15 0 0.0 3.2 0.00 0.00 0.00 100 1002.8
20260505115307 15 0 0.0 3.2 0.00 0.00 0.00 100 1002.8
20260505115207 15 0 0.0 3.2 0.00 0.00 0.00 100 1002.8
20260505115106 15 151 1.6 3.2 0.00 0.00 0.00 100 1002.8
20260505115006 15 146 0.0 3.2 0.00 0.00 0.00 100 1002.8
20260505114907 15 0 0.0 3.2 0.00 0.00 0.00 100 1002.8
20260505114806 15 0 0.0 3.2 0.00 0.00 0.00 100 1002.7
20260505114706 15 141 1.6 3.2 0.00 0.00 0.00 100 1002.7
20260505114607 15 137 1.6 3.2 0.00 0.00 0.00 100 1002.7
20260505114507 15 134 1.6 3.2 0.00 0.00 0.00 100 1002.7
20260505114427 15 135 1.6 3.2 0.00 0.00 0.00 100 1002.8
20260505114327 15 138 1.6 3.2 0.00 0.00 0.00 100 1002.7
20260505114206 15 140 1.6 3.2 0.00 0.00 0.00 100 1002.8
20260505114106 15 143 1.6 3.2 0.00 0.00 0.00 100 1002.6
20260505114006 15 148 1.6 3.2 0.00 0.00 0.00 100 1002.7
20260505113928 15 153 1.6 3.2 0.00 0.00 0.00 100 1002.8
20260505113806 15 161 0.0 3.2 0.00 0.00 0.00 100 1002.7
20260505113706 15 0 0.0 3.2 0.00 0.00 0.00 100 1002.7
20260505113628 15 0 0.0 3.2 0.00 0.00 0.00 100 1002.6
20260505113506 15 0 0.0 3.2 0.00 0.00 0.00 100 1002.7
20260505113407 15 0 0.0 3.2 0.00 0.00 0.00 100 1002.6
20260505113306 15 0 0.0 4.8 0.00 0.00 0.00 100 1002.7
20260505113207 15 0 0.0 4.8 0.00 0.00 0.00 100 1002.6
20260505113106 15 0 0.0 4.8 0.00 0.00 0.00 100 1002.7
20260505113006 15 0 0.0 4.8 0.00 0.00 0.00 100 1002.6
20260505112928 15 0 0.0 4.8 0.00 0.00 0.00 100 1002.7
20260505112806 15 172 1.6 4.8 0.00 0.00 0.00 100 1002.7
20260505112707 15 172 1.6 4.8 0.00 0.00 0.00 100 1002.6
20260505112607 15 175 0.0 4.8 0.00 0.00 0.00 100 1002.7
20260505112506 15 0 0.0 4.8 0.00 0.00 0.00 100 1002.6
20260505112406 15 0 0.0 4.8 0.00 0.00 0.00 100 1002.7
20260505112306 15 164 1.6 4.8 0.00 0.00 0.00 100 1002.6
20260505112206 15 0 0.0 4.8 0.00 0.00 0.00 100 1002.6
20260505112107 15 158 1.6 4.8 0.00 0.00 0.00 100 1002.5
20260505112007 15 160 1.6 4.8 0.00 0.00 0.00 100 1002.5
20260505111906 15 162 1.6 4.8 0.00 0.00 0.00 100 1002.5
20260505111806 15 0 0.0 3.2 0.00 0.00 0.00 100 1002.6
20260505111706 15 0 0.0 6.4 0.00 0.00 0.00 100 1002.7
20260505111606 15 156 1.6 6.4 0.00 0.00 0.00 100 1002.5
20260505111506 15 154 0.0 6.4 0.00 0.00 0.00 100 1002.4
20260505111406 15 148 1.6 6.4 0.00 0.00 0.00 100 1002.4
20260505111307 15 149 1.6 6.4 0.00 0.00 0.00 100 1002.5
20260505111206 15 146 1.6 6.4 0.00 0.00 0.00 100 1002.5
20260505111106 15 145 1.6 6.4 0.00 0.00 0.00 100 1002.4
20260505111007 15 144 1.6 6.4 0.00 0.00 0.00 100 1002.4
20260505110906 15 144 1.6 6.4 0.00 0.00 0.00 100 1002.4
20260505110827 15 145 1.6 6.4 0.00 0.00 0.00 100 1002.4
20260505110706 15 150 3.2 6.4 0.00 0.00 0.00 100 1002.5
20260505110606 15 149 1.6 6.4 0.00 0.00 0.00 100 1002.3
20260505110506 15 152 1.6 6.4 0.00 0.00 0.00 100 1002.3
20260505110406 15 159 3.2 6.4 0.00 0.00 0.00 100 1002.3
20260505110306 15 165 1.6 4.8 0.00 0.00 0.00 100 1002.3
20260505110206 15 170 1.6 4.8 0.00 0.00 0.00 100 1002.4
20260505110106 15 169 3.2 4.8 0.00 0.00 0.00 100 1002.3
20260505102207 16 0 0.0 3.2 0.00 0.00 0.00 100 1001.7
20260505102106 16 180 1.6 3.2 0.00 0.00 0.00 100 1001.7
20260505102027 16 180 1.6 3.2 0.00 0.00 0.00 100 1001.7
20260505101906 16 180 1.6 3.2 0.00 0.00 0.00 100 1001.7
20260505101806 16 0 0.0 3.2 0.00 0.00 0.00 100 1001.6
20260505101706 16 0 0.0 3.2 0.00 0.00 0.00 100 1001.5
20260505101607 16 180 1.6 3.2 0.00 0.00 0.00 100 1001.7
20260505101506 16 180 1.6 3.2 0.00 0.00 0.00 100 1001.6
20260505101406 16 0 0.0 3.2 0.00 0.00 0.00 100 1001.5
20260505101306 16 0 0.0 0.0 0.00 0.00 0.00 100 1001.5
20260505101206 16 0 0.0 0.0 0.00 0.00 0.00 99 1001.5
20260505101106 16 0 0.0 0.0 0.00 0.00 0.00 99 1001.5
20260505101027 16 0 0.0 0.0 0.00 0.00 0.00 99 1001.5
20260505100907 16 0 0.0 0.0 0.00 0.00 0.00 99 1001.5
20260505100806 16 0 0.0 0.0 0.00 0.00 0.00 99 1001.4
20260505100706 16 0 0.0 0.0 0.00 0.00 0.00 99 1001.5
20260505100606 16 0 0.0 0.0 0.00 0.00 0.00 99 1001.5
20260505100506 16 0 0.0 0.0 0.00 0.00 0.00 99 1001.3
20260505100406 16 0 0.0 0.0 0.00 0.00 0.00 99 1001.4
20260505100307 16 0 0.0 0.0 0.00 0.00 0.00 98 1001.4
20260505100206 16 0 0.0 0.0 0.00 0.00 0.00 98 1001.4
20260505100127 16 0 0.0 0.0 0.00 0.00 0.00 99 1001.4
20260505100007 16 0 0.0 0.0 0.00 0.00 0.00 98 1001.4
20260505095906 16 0 0.0 0.0 0.00 0.00 0.00 99 1001.3
20260505095806 16 0 0.0 0.0 0.00 0.00 0.00 99 1001.4
20260505095706 16 0 0.0 0.0 0.00 0.00 0.00 99 1001.2
20260505095606 16 0 0.0 0.0 0.00 0.00 0.00 98 1001.4
20260505095506 16 0 0.0 0.0 0.00 0.00 0.00 98 1001.1
20260505095428 16 0 0.0 0.0 0.00 0.00 0.00 98 1001.1
20260505095306 16 0 0.0 0.0 0.00 0.00 0.00 98 1001.3
20260505095206 16 0 0.0 0.0 0.00 0.00 0.00 98 1001.2
20260505095107 16 0 0.0 0.0 0.00 0.00 0.00 98 1001.3
20260505095006 16 0 0.0 0.0 0.00 0.00 0.00 97 1001.2
20260505094906 16 0 0.0 0.0 0.00 0.00 0.00 97 1001.2
20260505094806 16 0 0.0 0.0 0.00 0.00 0.00 97 1001.4
20260505094707 16 0 0.0 0.0 0.00 0.00 0.00 97 1001.2
20260505094627 16 0 0.0 0.0 0.00 0.00 0.00 97 1001.2
20260505094507 16 0 0.0 0.0 0.00 0.00 0.00 97 1001.2
20260505094406 16 0 0.0 0.0 0.00 0.00 0.00 97 1001.2
20260505094306 16 0 0.0 0.0 0.00 0.00 0.00 97 1001.2
20260505094206 16 0 0.0 0.0 0.00 0.00 0.00 97 1001.3
20260505094106 16 0 0.0 0.0 0.00 0.00 0.00 97 1001.3
20260505094006 17 0 0.0 0.0 0.00 0.00 0.00 96 1001.5
20260505093906 17 0 0.0 0.0 0.00 0.00 0.00 96 1001.4
20260505093807 17 0 0.0 1.6 0.00 0.00 0.00 96 1001.3
20260505093706 17 0 0.0 1.6 0.00 0.00 0.00 96 1001.3
20260505093606 17 0 0.0 1.6 0.00 0.00 0.00 96 1001.4
20260505093528 17 0 0.0 3.2 0.00 0.00 0.00 96 1001.4
20260505093407 17 0 0.0 3.2 0.00 0.00 0.00 96 1001.5
20260505093306 17 0 0.0 3.2 0.00 0.00 0.00 96 1001.5
20260505093206 17 0 0.0 3.2 0.00 0.00 0.00 96 1001.4
20260505093128 17 0 0.0 3.2 0.00 0.00 0.00 96 1001.4
20260505093006 17 0 0.0 3.2 0.00 0.00 0.00 96 1001.4
20260505092927 17 0 0.0 3.2 0.00 0.00 0.00 96 1001.5
20260505092827 17 0 0.0 3.2 0.00 0.00 0.00 96 1001.3
20260505092706 17 0 0.0 3.2 0.00 0.00 0.00 96 1001.4
20260505092606 17 0 0.0 3.2 0.00 0.00 0.00 96 1001.3
20260505092507 17 0 0.0 3.2 0.00 0.00 0.00 96 1001.4
20260505092406 17 0 0.0 3.2 0.00 0.00 0.00 96 1001.5
20260505092306 17 0 0.0 1.6 0.00 0.00 0.00 95 1001.4
20260505092206 17 0 0.0 1.6 0.00 0.00 0.00 95 1001.5
20260505092127 17 0 0.0 1.6 0.00 0.00 0.00 95 1001.5
20260505092006 17 0 0.0 1.6 0.00 0.00 0.00 95 1001.4
20260505091906 17 0 0.0 0.0 0.00 0.00 0.00 95 1001.4
20260505091806 17 0 0.0 0.0 0.00 0.00 0.00 95 1001.3
20260505091706 17 0 0.0 0.0 0.00 0.00 0.00 95 1001.3
20260505091606 17 0 0.0 0.0 0.00 0.00 0.00 95 1001.4
20260505091507 17 0 0.0 0.0 0.00 0.00 0.00 95 1001.5
20260505091406 17 0 0.0 0.0 0.00 0.00 0.00 95 1001.3
20260505091306 17 0 0.0 0.0 0.00 0.00 0.00 95 1001.3
20260505091206 17 0 0.0 0.0 0.00 0.00 0.00 95 1001.1
20260505091106 17 0 0.0 0.0 0.00 0.00 0.00 95 1001.3
20260505091027 17 0 0.0 0.0 0.00 0.00 0.00 95 1001.3
20260505090906 17 0 0.0 0.0 0.00 0.00 0.00 95 1001.5
20260505090806 17 0 0.0 0.0 0.00 0.00 0.00 95 1001.4
20260505090727 17 0 0.0 0.0 0.00 0.00 0.00 95 1001.5
20260505090606 17 0 0.0 0.0 0.00 0.00 0.00 95 1001.5
20260505090506 17 0 0.0 0.0 0.00 0.00 0.00 95 1001.3
20260505090406 17 0 0.0 0.0 0.00 0.00 0.00 95 1001.2
20260505090306 17 0 0.0 0.0 0.00 0.00 0.00 95 1001.3
20260505090206 17 0 0.0 0.0 0.00 0.00 0.00 95 1001.4
20260505090106 17 0 0.0 0.0 0.00 0.00 0.00 95 1001.4
20260505090006 17 0 0.0 0.0 0.00 0.00 0.00 95 1001.3
20260505085906 17 0 0.0 0.0 0.00 0.00 0.00 94 1001.3
20260505085806 17 0 0.0 0.0 0.00 0.00 0.00 94 1001.3
20260505085706 17 0 0.0 0.0 0.00 0.00 0.00 94 1001.3
20260505085607 17 0 0.0 0.0 0.00 0.00 0.00 94 1001.4
20260505085506 17 0 0.0 0.0 0.00 0.00 0.00 94 1001.2
20260505085406 17 0 0.0 0.0 0.00 0.00 0.00 94 1001.2
20260505085306 17 0 0.0 0.0 0.00 0.00 0.00 94 1001.2
20260505085206 17 0 0.0 0.0 0.00 0.00 0.00 94 1001.2
20260505085106 17 0 0.0 0.0 0.00 0.00 0.00 94 1001.3
20260505085007 17 0 0.0 0.0 0.00 0.00 0.00 94 1001.2
20260505084906 17 0 0.0 0.0 0.00 0.00 0.00 94 1001.3
20260505084806 17 0 0.0 0.0 0.00 0.00 0.00 94 1001.2
20260505084707 17 0 0.0 0.0 0.00 0.00 0.00 94 1001.3
20260505084606 17 0 0.0 0.0 0.00 0.00 0.00 94 1001.2
20260505084527 17 0 0.0 0.0 0.00 0.00 0.00 94 1001.1
20260505084406 17 0 0.0 0.0 0.00 0.00 0.00 94 1001.2
20260505084306 17 0 0.0 0.0 0.00 0.00 0.00 94 1001.2
20260505084206 17 0 0.0 0.0 0.00 0.00 0.00 94 1001.1
20260505084127 17 0 0.0 0.0 0.00 0.00 0.00 94 1001.2
20260505084006 17 0 0.0 0.0 0.00 0.00 0.00 94 1001.2
20260505083927 17 0 0.0 0.0 0.00 0.00 0.00 94 1001.0
20260505083806 17 0 0.0 0.0 0.00 0.00 0.00 93 1001.2
20260505083706 17 0 0.0 0.0 0.00 0.00 0.00 93 1001.2
20260505083606 17 0 0.0 0.0 0.00 0.00 0.00 93 1001.1
20260505083507 17 0 0.0 0.0 0.00 0.00 0.00 93 1001.0
20260505083428 17 0 0.0 0.0 0.00 0.00 0.00 93 1001.0
20260505083306 17 0 0.0 0.0 0.00 0.00 0.00 93 1001.2
20260505083206 17 0 0.0 0.0 0.00 0.00 0.00 93 1001.2
20260505083106 17 0 0.0 0.0 0.00 0.00 0.00 93 1001.2
20260505083028 17 0 0.0 0.0 0.00 0.00 0.00 93 1001.2
20260505082906 17 0 0.0 0.0 0.00 0.00 0.00 93 1001.0
20260505082806 17 0 0.0 0.0 0.00 0.00 0.00 93 1001.1
20260505082727 17 0 0.0 0.0 0.00 0.00 0.00 93 1001.1
20260505082606 17 0 0.0 0.0 0.00 0.00 0.00 93 1001.1
20260505082506 17 0 0.0 0.0 0.00 0.00 0.00 93 1001.1
20260505082428 17 0 0.0 0.0 0.00 0.00 0.00 93 1001.1
20260505082306 17 0 0.0 0.0 0.00 0.00 0.00 93 1001.1
20260505082227 17 0 0.0 0.0 0.00 0.00 0.00 93 1001.1
20260505082128 17 0 0.0 0.0 0.00 0.00 0.00 93 1001.2
20260505082006 17 0 0.0 0.0 0.00 0.00 0.00 93 1001.0
20260505081906 17 0 0.0 0.0 0.00 0.00 0.00 93 1001.1
20260505081807 17 0 0.0 0.0 0.00 0.00 0.00 93 1001.1
20260505081706 17 0 0.0 0.0 0.00 0.00 0.00 93 1001.1
20260505081606 17 0 0.0 0.0 0.00 0.00 0.00 93 1001.2
20260505081506 17 0 0.0 0.0 0.00 0.00 0.00 93 1001.0
20260505081407 17 0 0.0 0.0 0.00 0.00 0.00 93 1001.1
20260505081306 17 0 0.0 0.0 0.00 0.00 0.00 93 1001.2
20260505081206 17 0 0.0 0.0 0.00 0.00 0.00 93 1001.1
20260505081127 17 0 0.0 0.0 0.00 0.00 0.00 93 1001.2
20260505081006 17 0 0.0 0.0 0.00 0.00 0.00 94 1001.1
20260505080906 17 0 0.0 0.0 0.00 0.00 0.00 94 1001.0
20260505080807 17 0 0.0 0.0 0.00 0.00 0.00 94 1001.2
20260505080727 17 0 0.0 0.0 0.00 0.00 0.00 94 1001.0
20260505080606 17 0 0.0 0.0 0.00 0.00 0.00 93 1001.1
20260505080506 17 0 0.0 0.0 0.00 0.00 0.00 93 1001.1
20260505080406 17 0 0.0 1.6 0.00 0.00 0.00 93 1001.0
20260505080306 17 0 0.0 3.2 0.00 0.00 0.00 93 1001.0
20260505080206 17 0 0.0 3.2 0.00 0.00 0.00 93 1001.0
20260505080106 17 0 0.0 3.2 0.00 0.00 0.00 93 1001.0
20260505080006 17 0 0.0 3.2 0.00 0.00 0.00 93 1000.9
20260505075906 17 0 0.0 3.2 0.00 0.00 0.00 93 1000.9
20260505075807 17 0 0.0 3.2 0.00 0.00 0.00 93 1000.9
20260505075706 17 0 0.0 3.2 0.00 0.00 0.00 94 1000.8
20260505075606 17 0 0.0 3.2 0.00 0.00 0.00 94 1000.8
20260505075506 17 0 0.0 3.2 0.00 0.00 0.00 94 1000.9
20260505075406 17 180 0.0 3.2 0.00 0.00 0.00 94 1000.9
20260505075306 17 180 1.6 3.2 0.00 0.00 0.00 94 1000.8
20260505075206 17 180 0.0 3.2 0.00 0.00 0.00 94 1000.8
20260505075106 17 180 1.6 3.2 0.00 0.00 0.00 94 1000.8
20260505075006 17 180 0.0 3.2 0.00 0.00 0.00 94 1000.8
20260505074906 17 0 0.0 3.2 0.00 0.00 0.00 94 1000.8
20260505074806 17 0 0.0 3.2 0.00 0.00 0.00 94 1000.8
20260505074706 17 0 0.0 1.6 0.00 0.00 0.00 94 1000.8
20260505074606 17 0 0.0 1.6 0.00 0.00 0.00 94 1000.7
20260505074506 17 0 0.0 1.6 0.00 0.00 0.00 94 1000.8
20260505074406 17 0 0.0 1.6 0.00 0.00 0.00 94 1000.7
20260505074306 17 0 0.0 1.6 0.00 0.00 0.00 94 1000.8
20260505074207 17 0 0.0 1.6 0.00 0.00 0.00 94 1000.7
20260505074106 17 0 0.0 1.6 0.00 0.00 0.00 94 1000.8
20260505074006 17 0 0.0 1.6 0.00 0.00 0.00 94 1000.7
20260505073907 17 0 0.0 0.0 0.00 0.00 0.00 93 1000.7
20260505073806 17 0 0.0 0.0 0.00 0.00 0.00 93 1000.6
20260505073706 17 0 0.0 0.0 0.00 0.00 0.00 93 1000.7
20260505073606 17 0 0.0 0.0 0.00 0.00 0.00 93 1000.6
20260505073506 17 0 0.0 0.0 0.00 0.00 0.00 93 1000.7
20260505073406 17 0 0.0 0.0 0.00 0.00 0.00 92 1000.6
20260505073306 17 0 0.0 0.0 0.00 0.00 0.00 92 1000.8
20260505073206 17 0 0.0 0.0 0.00 0.00 0.00 92 1000.7
20260505073106 17 0 0.0 0.0 0.00 0.00 0.00 92 1000.7
20260505073006 17 0 0.0 0.0 0.00 0.00 0.00 92 1000.7
20260505072906 17 0 0.0 0.0 0.00 0.00 0.00 92 1000.6
20260505072806 17 0 0.0 0.0 0.00 0.00 0.00 92 1000.5
20260505072706 17 0 0.0 0.0 0.00 0.00 0.00 92 1000.5
20260505072607 17 0 0.0 1.6 0.00 0.00 0.00 92 1000.5
20260505072527 17 0 0.0 1.6 0.00 0.00 0.00 91 1000.5
20260505072406 17 0 0.0 1.6 0.00 0.00 0.00 91 1000.6
20260505072306 17 0 0.0 1.6 0.00 0.00 0.00 91 1000.4
20260505072206 17 0 0.0 1.6 0.00 0.00 0.00 91 1000.6
20260505072106 17 0 0.0 1.6 0.00 0.00 0.00 91 1000.4
20260505072028 17 0 0.0 1.6 0.00 0.00 0.00 91 1000.3
20260505071906 17 0 0.0 1.6 0.00 0.00 0.00 91 1000.3
20260505071806 18 0 0.0 1.6 0.00 0.00 0.00 91 1000.3
20260505071706 18 0 0.0 1.6 0.00 0.00 0.00 91 1000.2
20260505071606 18 0 0.0 1.6 0.00 0.00 0.00 91 1000.3
20260505071506 18 0 0.0 0.0 0.00 0.00 0.00 91 1000.3
20260505071406 18 0 0.0 0.0 0.00 0.00 0.00 91 1000.2
20260505071306 18 0 0.0 0.0 0.00 0.00 0.00 91 1000.3
20260505071206 18 0 0.0 3.2 0.00 0.00 0.00 90 1000.3
20260505071127 18 0 0.0 3.2 0.00 0.00 0.00 90 1000.3
20260505071007 18 0 0.0 3.2 0.00 0.00 0.00 90 1000.4
20260505070906 18 0 0.0 3.2 0.00 0.00 0.00 90 1000.3
20260505070806 18 0 0.0 3.2 0.00 0.00 0.00 90 1000.4
20260505070706 18 0 0.0 3.2 0.00 0.00 0.00 90 1000.3
20260505070627 18 0 0.0 3.2 0.00 0.00 0.00 90 1000.3
20260505070506 18 0 0.0 3.2 0.00 0.00 0.00 89 1000.4
20260505070427 18 0 0.0 3.2 0.00 0.00 0.00 89 1000.4
20260505070327 18 0 0.0 3.2 0.00 0.00 0.00 89 1000.4
20260505070206 18 0 0.0 3.2 0.00 0.00 0.00 89 1000.3
20260505070106 18 225 0.0 3.2 0.00 0.00 0.00 89 1000.4
20260505070007 18 215 0.0 3.2 0.00 0.00 0.00 89 1000.3
20260505065906 18 212 1.6 3.2 0.00 0.00 0.00 89 1000.4
20260505065806 18 212 1.6 3.2 0.00 0.00 0.00 89 1000.3
20260505065727 18 0 0.0 3.2 0.00 0.00 0.00 89 1000.3
20260505065606 18 0 0.0 3.2 0.00 0.00 0.00 88 1000.3
20260505065506 19 0 0.0 3.2 0.00 0.00 0.00 88 1000.3
20260505065406 18 0 0.0 3.2 0.00 0.00 0.00 88 1000.5
20260505065306 19 0 0.0 4.8 0.00 0.00 0.00 88 1000.4
20260505065206 19 0 0.0 4.8 0.00 0.00 0.00 88 1000.3
20260505065106 19 0 0.0 4.8 0.00 0.00 0.00 88 1000.3
20260505065006 19 214 0.0 4.8 0.00 0.00 0.00 88 1000.3
20260505064927 19 217 1.6 4.8 0.00 0.00 0.00 88 1000.2
20260505064806 19 215 1.6 4.8 0.00 0.00 0.00 88 1000.2
20260505064706 19 213 0.0 4.8 0.00 0.00 0.00 88 1000.2
20260505064606 19 216 1.6 4.8 0.00 0.00 0.00 88 1000.0
20260505064506 19 217 1.6 4.8 0.00 0.00 0.00 88 1000.1
20260505064406 19 216 1.6 4.8 0.00 0.00 0.00 88 1000.3
20260505064327 19 214 1.6 4.8 0.00 0.00 0.00 88 1000.4
20260505064206 19 210 1.6 3.2 0.00 0.00 0.00 88 1000.2
20260505064106 19 209 1.6 3.2 0.00 0.00 0.00 88 1000.3
20260505064006 19 215 0.0 3.2 0.00 0.00 0.00 88 1000.2
20260505063906 19 0 0.0 1.6 0.00 0.00 0.00 87 1000.1
20260505063828 19 0 0.0 1.6 0.00 0.00 0.00 87 1000.1
20260505063706 19 0 0.0 1.6 0.00 0.00 0.00 87 1000.1
20260505063627 19 0 0.0 1.6 0.00 0.00 0.00 87 1000.1
20260505063506 19 0 0.0 1.6 0.00 0.00 0.00 87 1000.1
20260505063427 19 0 0.0 1.6 0.00 0.00 0.00 87 1000.1
20260505063306 19 0 0.0 1.6 0.00 0.00 0.00 87 1000.0
20260505063206 19 0 0.0 1.6 0.00 0.00 0.00 88 1000.1
20260505063106 19 0 0.0 1.6 0.00 0.00 0.00 88 1000.0
20260505063006 19 0 0.0 1.6 0.00 0.00 0.00 88 1000.2
20260505062906 19 0 0.0 1.6 0.00 0.00 0.00 87 1000.1
20260505062806 19 0 0.0 1.6 0.00 0.00 0.00 87 1000.0
20260505062706 19 0 0.0 1.6 0.00 0.00 0.00 87 999.9
20260505062606 19 0 0.0 1.6 0.00 0.00 0.00 87 1000.1
20260505062506 19 0 0.0 0.0 0.00 0.00 0.00 87 1000.1
20260505062406 19 0 0.0 0.0 0.00 0.00 0.00 87 1000.0
20260505062306 19 0 0.0 0.0 0.00 0.00 0.00 87 1000.1
20260505062207 19 0 0.0 0.0 0.00 0.00 0.00 86 999.9
20260505062127 19 0 0.0 0.0 0.00 0.00 0.00 86 1000.1
20260505062006 19 0 0.0 0.0 0.00 0.00 0.00 86 999.9
20260505061906 19 0 0.0 0.0 0.00 0.00 0.00 86 1000.0
20260505061806 19 0 0.0 0.0 0.00 0.00 0.00 86 1000.0
20260505061706 19 0 0.0 0.0 0.00 0.00 0.00 85 1000.0
20260505061606 19 0 0.0 0.0 0.00 0.00 0.00 85 1000.0
20260505061506 19 0 0.0 0.0 0.00 0.00 0.00 85 1000.0
20260505061406 19 0 0.0 0.0 0.00 0.00 0.00 85 999.9
20260505061306 19 0 0.0 0.0 0.00 0.00 0.00 85 1000.0
20260505061206 20 0 0.0 0.0 0.00 0.00 0.00 84 1000.0
20260505061127 20 0 0.0 0.0 0.00 0.00 0.00 84 999.9
20260505061006 20 0 0.0 1.6 0.00 0.00 0.00 84 999.8
20260505060906 20 0 0.0 1.6 0.00 0.00 0.00 84 999.9
20260505060806 20 0 0.0 3.2 0.00 0.00 0.00 83 999.8
20260505060706 20 0 0.0 3.2 0.00 0.00 0.00 83 999.9
20260505060606 20 0 0.0 3.2 0.00 0.00 0.00 83 999.8
20260505060506 20 0 0.0 3.2 0.00 0.00 0.00 83 999.8
20260505060406 20 0 0.0 3.2 0.00 0.00 0.00 83 999.8
20260505060306 20 0 0.0 4.8 0.00 0.00 0.00 83 999.8
20260505060206 20 0 0.0 4.8 0.00 0.00 0.00 83 999.8
20260505060127 20 0 0.0 4.8 0.00 0.00 0.00 83 999.8
20260505060027 20 0 0.0 4.8 0.00 0.00 0.00 82 999.9
20260505055927 20 0 0.0 4.8 0.00 0.00 0.00 82 999.9
20260505055806 20 0 0.0 4.8 0.00 0.00 0.00 82 999.9
20260505055706 20 0 0.0 4.8 0.00 0.00 0.00 82 1000.0
20260505055627 20 0 0.0 4.8 0.00 0.00 0.00 82 999.8
20260505055506 20 98 0.0 4.8 0.00 0.00 0.00 82 999.8
20260505055427 20 93 1.6 4.8 0.00 0.00 0.00 82 999.8
20260505055306 20 90 3.2 4.8 0.00 0.00 0.00 82 999.8
20260505055206 20 90 3.2 4.8 0.00 0.00 0.00 82 999.9
20260505055106 20 0 0.0 0.0 0.00 0.00 0.00 79 999.9
20260505055006 20 0 0.0 3.2 0.00 0.00 0.00 79 999.9
20260505054906 20 0 0.0 3.2 0.00 0.00 0.00 78 999.9
20260505054806 20 0 0.0 3.2 0.00 0.00 0.00 78 999.8
20260505054706 20 0 0.0 3.2 0.00 0.00 0.00 78 999.8
20260505054606 20 0 0.0 3.2 0.00 0.00 0.00 78 999.8
20260505054506 20 0 0.0 3.2 0.00 0.00 0.00 77 999.8
20260505054406 20 0 0.0 3.2 0.00 0.00 0.00 77 999.8
20260505054306 21 0 0.0 4.8 0.00 0.00 0.00 77 999.8
20260505054206 21 0 0.0 6.4 0.00 0.00 0.00 78 999.8
20260505054127 21 0 0.0 6.4 0.00 0.00 0.00 77 999.7
20260505054006 21 200 1.6 6.4 0.00 0.00 0.00 77 999.7
20260505053906 21 198 1.6 6.4 0.00 0.00 0.00 77 999.6
20260505053806 21 0 0.0 6.4 0.00 0.00 0.00 75 999.8
20260505053727 21 0 0.0 6.4 0.00 0.00 0.00 75 999.7
20260505053606 21 0 0.0 6.4 0.00 0.00 0.00 75 999.7
20260505053506 21 0 0.0 6.4 0.00 0.00 0.00 75 999.7
20260505053406 21 205 1.6 6.4 0.00 0.00 0.00 75 999.8
20260505053306 21 212 3.2 6.4 0.00 0.00 0.00 76 999.6
20260505053206 21 219 1.6 6.4 0.00 0.00 0.00 75 999.5
20260505053128 21 215 0.0 3.2 0.00 0.00 0.00 73 999.6
20260505053006 21 0 0.0 1.6 0.00 0.00 0.00 71 999.6
20260505052906 21 0 0.0 1.6 0.00 0.00 0.00 71 999.5
20260505052828 21 0 0.0 0.0 0.00 0.00 0.00 70 999.5
20260505052727 21 0 0.0 0.0 0.00 0.00 0.00 70 999.5
20260505052606 21 0 0.0 0.0 0.00 0.00 0.00 69 999.3
20260505052506 21 0 0.0 0.0 0.00 0.00 0.00 69 999.5
20260505052406 22 0 0.0 0.0 0.00 0.00 0.00 68 999.5
20260505052306 22 0 0.0 0.0 0.00 0.00 0.00 68 999.5
20260505052206 22 0 0.0 0.0 0.00 0.00 0.00 68 999.4
20260505052106 22 0 0.0 0.0 0.00 0.00 0.00 68 999.5
20260505052006 22 0 0.0 0.0 0.00 0.00 0.00 68 999.5
20260505051906 22 0 0.0 3.2 0.00 0.00 0.00 67 999.5
20260505051806 22 0 0.0 3.2 0.00 0.00 0.00 67 999.4
20260505051706 22 0 0.0 3.2 0.00 0.00 0.00 67 999.4
20260505051627 22 0 0.0 3.2 0.00 0.00 0.00 67 999.4
20260505051506 22 0 0.0 3.2 0.00 0.00 0.00 66 999.5
20260505051427 22 0 0.0 3.2 0.00 0.00 0.00 66 999.5
20260505051327 22 0 0.0 3.2 0.00 0.00 0.00 66 999.4
20260505051206 22 0 0.0 3.2 0.00 0.00 0.00 66 999.4
20260505051106 22 0 0.0 3.2 0.00 0.00 0.00 66 999.3
20260505051006 22 202 0.0 3.2 0.00 0.00 0.00 66 999.3
20260505050906 22 207 0.0 3.2 0.00 0.00 0.00 66 999.4
20260505050806 22 0 0.0 3.2 0.00 0.00 0.00 65 999.4
20260505050706 22 0 0.0 0.0 0.00 0.00 0.00 65 999.3
20260505050606 22 0 0.0 0.0 0.00 0.00 0.00 65 999.5
20260505050506 23 0 0.0 0.0 0.00 0.00 0.00 64 999.4
20260505050406 23 0 0.0 0.0 0.00 0.00 0.00 64 999.4
20260505050306 23 0 0.0 0.0 0.00 0.00 0.00 64 999.3
20260505050227 23 0 0.0 0.0 0.00 0.00 0.00 64 999.3
20260505050106 23 0 0.0 0.0 0.00 0.00 0.00 64 999.3
20260505041706 25 0 0.0 6.4 0.00 0.00 0.00 60 999.0
20260505041606 25 215 0.0 6.4 0.00 0.00 0.00 61 999.2
20260505041506 25 216 1.6 6.4 0.00 0.00 0.00 61 999.3
20260505041406 25 220 0.0 6.4 0.00 0.00 0.00 61 999.3
20260505041306 25 0 0.0 6.4 0.00 0.00 0.00 60 999.1
20260505041206 25 0 0.0 6.4 0.00 0.00 0.00 60 999.0
20260505041106 25 0 0.0 6.4 0.00 0.00 0.00 60 999.1
20260505041006 25 0 0.0 6.4 0.00 0.00 0.00 61 999.1
20260505040906 25 212 1.6 6.4 0.00 0.00 0.00 61 999.2
20260505040806 25 225 3.2 6.4 0.00 0.00 0.00 62 999.2
20260505040706 25 225 3.2 6.4 0.00 0.00 0.00 62 999.0
20260505040606 25 0 0.0 0.0 0.00 0.00 0.00 59 999.0
20260505040506 25 0 0.0 0.0 0.00 0.00 0.00 59 999.0
20260505040406 25 0 0.0 0.0 0.00 0.00 0.00 59 998.9
20260505040306 25 0 0.0 0.0 0.00 0.00 0.00 59 998.9
20260505040206 25 0 0.0 0.0 0.00 0.00 0.00 59 998.9
20260505040106 25 0 0.0 0.0 0.00 0.00 0.00 59 998.9
20260505040006 25 0 0.0 0.0 0.00 0.00 0.00 59 998.9
20260505035906 25 0 0.0 0.0 0.00 0.00 0.00 59 998.9
20260505035827 25 0 0.0 0.0 0.00 0.00 0.00 59 999.0
20260505035706 25 0 0.0 0.0 0.00 0.00 0.00 58 998.8
20260505035606 25 0 0.0 0.0 0.00 0.00 0.00 58 998.9
20260505035506 25 0 0.0 0.0 0.00 0.00 0.00 57 998.8
20260505035406 26 0 0.0 0.0 0.00 0.00 0.00 57 998.9
20260505035306 26 0 0.0 0.0 0.00 0.00 0.00 57 998.8
20260505035206 26 0 0.0 0.0 0.00 0.00 0.00 56 998.6
20260505035127 26 0 0.0 0.0 0.00 0.00 0.00 56 998.6
20260505035006 26 0 0.0 0.0 0.00 0.00 0.00 56 998.6
20260505034906 26 0 0.0 0.0 0.00 0.00 0.00 56 998.6
20260505034806 26 0 0.0 0.0 0.00 0.00 0.00 55 998.7
20260505034706 26 0 0.0 0.0 0.00 0.00 0.00 55 998.6
20260505034606 26 0 0.0 0.0 0.00 0.00 0.00 55 998.9
20260505034506 26 0 0.0 0.0 0.00 0.00 0.00 55 998.6
20260505034406 26 0 0.0 0.0 0.00 0.00 0.00 55 998.6
20260505034306 26 0 0.0 0.0 0.00 0.00 0.00 54 998.6
20260505034227 26 0 0.0 0.0 0.00 0.00 0.00 55 998.6
20260505034106 26 0 0.0 0.0 0.00 0.00 0.00 55 998.6
20260505034006 26 0 0.0 0.0 0.00 0.00 0.00 55 998.7
20260505033906 26 0 0.0 0.0 0.00 0.00 0.00 54 998.7
20260505033806 26 0 0.0 0.0 0.00 0.00 0.00 53 998.5
20260505033706 26 0 0.0 0.0 0.00 0.00 0.00 53 998.6
20260505033606 26 0 0.0 0.0 0.00 0.00 0.00 52 998.7
20260505033506 26 0 0.0 0.0 0.00 0.00 0.00 51 998.5
20260505033406 26 0 0.0 0.0 0.00 0.00 0.00 50 998.6
20260505033327 26 0 0.0 0.0 0.00 0.00 0.00 50 998.6
20260505033206 27 0 0.0 0.0 0.00 0.00 0.00 50 998.6
20260505033106 26 0 0.0 0.0 0.00 0.00 0.00 50 998.5
20260505033006 27 0 0.0 0.0 0.00 0.00 0.00 50 998.6
20260505032906 27 0 0.0 0.0 0.00 0.00 0.00 50 998.6
20260505032806 27 0 0.0 0.0 0.00 0.00 0.00 50 998.5
20260505032706 27 0 0.0 0.0 0.00 0.00 0.00 50 998.5
20260505032606 27 0 0.0 0.0 0.00 0.00 0.00 50 998.5
20260505032506 27 0 0.0 0.0 0.00 0.00 0.00 50 998.4
20260505032406 27 0 0.0 0.0 0.00 0.00 0.00 50 998.4
20260505032306 27 0 0.0 0.0 0.00 0.00 0.00 50 998.6
20260505032206 27 0 0.0 0.0 0.00 0.00 0.00 50 998.5
20260505032106 27 0 0.0 0.0 0.00 0.00 0.00 50 998.5
20260505032027 27 0 0.0 0.0 0.00 0.00 0.00 50 998.6
20260505031906 27 0 0.0 0.0 0.00 0.00 0.00 50 998.4
20260505031806 27 0 0.0 0.0 0.00 0.00 0.00 50 998.4
20260505031706 27 0 0.0 0.0 0.00 0.00 0.00 50 998.3
20260505031606 27 0 0.0 0.0 0.00 0.00 0.00 50 998.4
20260505031506 27 0 0.0 0.0 0.00 0.00 0.00 50 998.3
20260505031406 27 0 0.0 0.0 0.00 0.00 0.00 50 998.4
20260505031306 27 0 0.0 0.0 0.00 0.00 0.00 50 998.4
20260505031206 27 0 0.0 0.0 0.00 0.00 0.00 50 998.4
20260505031106 28 0 0.0 0.0 0.00 0.00 0.00 50 998.4
20260505031006 28 0 0.0 0.0 0.00 0.00 0.00 50 998.3
20260505030906 28 0 0.0 0.0 0.00 0.00 0.00 50 998.3
20260505030806 28 0 0.0 0.0 0.00 0.00 0.00 50 998.4
20260505030727 28 0 0.0 0.0 0.00 0.00 0.00 50 998.4
20260505030606 28 0 0.0 0.0 0.00 0.00 0.00 50 998.4
20260505030506 28 0 0.0 0.0 0.00 0.00 0.00 50 998.3
20260505030406 28 0 0.0 0.0 0.00 0.00 0.00 50 998.4
20260505030306 28 0 0.0 0.0 0.00 0.00 0.00 50 998.4
20260505030206 28 0 0.0 0.0 0.00 0.00 0.00 50 998.4
20260505030106 28 0 0.0 0.0 0.00 0.00 0.00 50 998.3
20260505030006 28 0 0.0 0.0 0.00 0.00 0.00 50 998.5
20260505025906 28 0 0.0 0.0 0.00 0.00 0.00 50 998.3
20260505025827 29 0 0.0 0.0 0.00 0.00 0.00 50 998.3
20260505025706 29 0 0.0 0.0 0.00 0.00 0.00 50 998.4
20260505025606 29 0 0.0 0.0 0.00 0.00 0.00 50 998.2
20260505025506 29 0 0.0 0.0 0.00 0.00 0.00 50 998.3
20260505025406 29 0 0.0 0.0 0.00 0.00 0.00 50 998.3
20260505025306 29 0 0.0 0.0 0.00 0.00 0.00 50 998.2
20260505025206 30 0 0.0 1.6 0.00 0.00 0.00 50 998.3
20260505025106 30 0 0.0 1.6 0.00 0.00 0.00 50 998.4
20260505025027 30 0 0.0 1.6 0.00 0.00 0.00 50 998.2
20260505024927 30 0 0.0 1.6 0.00 0.00 0.00 50 998.3
20260505024806 30 0 0.0 1.6 0.00 0.00 0.00 50 998.3
20260505024706 30 0 0.0 1.6 0.00 0.00 0.00 50 998.3
20260505024606 30 0 0.0 1.6 0.00 0.00 0.00 50 998.2
20260505024506 30 0 0.0 1.6 0.00 0.00 0.00 50 998.4
20260505024406 30 0 0.0 1.6 0.00 0.00 0.00 50 998.2
20260505024327 30 0 0.0 1.6 0.00 0.00 0.00 50 998.2
20260505024206 31 0 0.0 1.6 0.00 0.00 0.00 50 998.3
20260505024106 31 0 0.0 4.8 0.00 0.00 0.00 50 998.3
20260505024006 31 0 0.0 4.8 0.00 0.00 0.00 50 998.1
20260505023906 31 0 0.0 4.8 0.00 0.00 0.00 50 998.2
20260505023827 31 0 0.0 4.8 0.00 0.00 0.00 50 998.3
20260505023706 31 0 0.0 4.8 0.00 0.00 0.00 50 998.2
20260505023627 31 0 0.0 4.8 0.00 0.00 0.00 50 998.2
20260505023506 32 0 0.0 4.8 0.00 0.00 0.00 50 998.1
20260505023427 32 0 0.0 4.8 0.00 0.00 0.00 50 998.2
20260505023306 32 0 0.0 4.8 0.00 0.00 0.00 50 998.2
20260505023206 32 0 0.0 4.8 0.00 0.00 0.00 50 998.3
20260505023106 32 0 0.0 4.8 0.00 0.00 0.00 50 998.3
20260505023006 33 0 0.0 3.2 0.00 0.00 0.00 50 998.1
20260505022927 33 0 0.0 3.2 0.00 0.00 0.00 50 998.2
20260505022806 33 0 0.0 3.2 0.00 0.00 0.00 50 998.2
20260505022706 33 0 0.0 3.2 0.00 0.00 0.00 50 998.2
20260505022606 33 0 0.0 3.2 0.00 0.00 0.00 50 998.2
20260505022506 33 0 0.0 3.2 0.00 0.00 0.00 50 998.1
20260505022406 33 0 0.0 3.2 0.00 0.00 0.00 50 998.3
20260505022306 33 0 0.0 4.8 0.00 0.00 0.00 50 998.2
20260505022206 33 0 0.0 4.8 0.00 0.00 0.00 50 998.1
20260505022106 33 0 0.0 4.8 0.00 0.00 0.00 50 998.2
20260505022006 33 152 1.6 4.8 0.00 0.00 0.00 50 998.3
20260505021905 33 0 0.0 4.8 0.00 0.00 0.00 50 998.2
20260505021827 33 0 0.0 4.8 0.00 0.00 0.00 50 998.2
20260505021706 33 0 0.0 6.4 0.00 0.00 0.00 50 998.3
20260505021606 33 0 0.0 6.4 0.00 0.00 0.00 50 998.2
20260505021506 33 0 0.0 6.4 0.00 0.00 0.00 50 998.3
20260505021406 33 152 0.0 6.4 0.00 0.00 0.00 50 998.2
20260505021306 33 146 0.0 6.4 0.00 0.00 0.00 50 998.4
20260505021206 33 144 0.0 6.4 0.00 0.00 0.00 50 998.3
20260505021106 33 140 1.6 6.4 0.00 0.00 0.00 50 998.3
20260505021006 33 0 0.0 6.4 0.00 0.00 0.00 50 998.2
20260505020906 33 0 0.0 6.4 0.00 0.00 0.00 50 998.3
20260505020806 33 134 1.6 6.4 0.00 0.00 0.00 50 998.3
20260505020727 33 132 1.6 6.4 0.00 0.00 0.00 50 998.3
20260505020606 33 128 1.6 6.4 0.00 0.00 0.00 50 998.3
20260505020527 33 127 1.6 6.4 0.00 0.00 0.00 50 998.3
20260505020406 33 133 1.6 6.4 0.00 0.00 0.00 50 998.5
20260505020306 33 0 0.0 6.4 0.00 0.00 0.00 50 998.3
20260505020206 33 137 1.6 6.4 0.00 0.00 0.00 50 998.5
20260505020106 33 147 1.6 9.7 0.00 0.00 0.00 50 998.4
20260505020027 33 154 1.6 9.7 0.00 0.00 0.00 50 998.5
20260505015906 33 163 1.6 9.7 0.00 0.00 0.00 50 998.5
20260505015806 33 169 1.6 9.7 0.00 0.00 0.00 50 998.4
20260505015706 33 175 3.2 9.7 0.00 0.00 0.00 50 998.5
20260505015627 33 179 1.6 9.7 0.00 0.00 0.00 50 998.5
20260505015506 33 175 3.2 9.7 0.00 0.00 0.00 50 998.5
20260505015406 33 174 1.6 9.7 0.00 0.00 0.00 50 998.4
20260505015306 33 177 1.6 9.7 0.00 0.00 0.00 50 998.5
20260505015206 33 173 1.6 9.7 0.00 0.00 0.00 50 998.5
20260505015106 34 168 4.8 9.7 0.00 0.00 0.00 50 998.5
20260505015027 34 164 3.2 8.0 0.00 0.00 0.00 50 998.5
20260505014906 34 161 3.2 8.0 0.00 0.00 0.00 50 998.5
20260505014806 34 143 3.2 6.4 0.00 0.00 0.00 50 998.4
20260505014705 34 133 3.2 6.4 0.00 0.00 0.00 50 998.5
20260505014606 34 132 3.2 6.4 0.00 0.00 0.00 50 998.5
20260505014506 34 135 3.2 6.4 0.00 0.00 0.00 50 998.5
20260505014406 35 133 1.6 6.4 0.00 0.00 0.00 50 998.5
20260505014307 35 132 3.2 6.4 0.00 0.00 0.00 50 998.4
20260505014206 35 133 1.6 6.4 0.00 0.00 0.00 50 998.5
20260505014106 35 0 0.0 6.4 0.00 0.00 0.00 50 998.6
20260505014006 35 139 0.0 6.4 0.00 0.00 0.00 50 998.4
20260505013906 35 137 1.6 8.0 0.00 0.00 0.00 50 998.5
20260505013806 35 134 1.6 8.0 0.00 0.00 0.00 50 998.7
20260505013706 35 132 0.0 8.0 0.00 0.00 0.00 50 998.5
20260505013606 35 128 1.6 8.0 0.00 0.00 0.00 50 998.6
20260505013506 35 129 1.6 8.0 0.00 0.00 0.00 50 998.7
20260505013406 35 130 1.6 8.0 0.00 0.00 0.00 50 998.6
20260505013306 35 122 1.6 8.0 0.00 0.00 0.00 50 998.6
20260505013206 35 121 3.2 8.0 0.00 0.00 0.00 50 998.7
20260505013127 35 122 3.2 8.0 0.00 0.00 0.00 50 998.7
20260505013006 35 124 3.2 8.0 0.00 0.00 0.00 50 998.6
20260505012906 35 126 1.6 8.0 0.00 0.00 0.00 50 998.7
20260505012806 35 140 3.2 6.4 0.00 0.00 0.00 50 998.6
20260505012706 35 145 1.6 6.4 0.00 0.00 0.00 50 998.7
20260505012606 35 147 1.6 6.4 0.00 0.00 0.00 50 998.7
20260505012506 35 149 3.2 6.4 0.00 0.00 0.00 50 998.7
20260505012406 35 151 3.2 6.4 0.00 0.00 0.00 50 998.7
20260505012306 35 156 1.6 6.4 0.00 0.00 0.00 50 998.8
20260505012227 35 161 0.0 6.4 0.00 0.00 0.00 50 998.8
20260505012106 35 154 1.6 6.4 0.00 0.00 0.00 50 998.7
20260505012006 35 146 1.6 6.4 0.00 0.00 0.00 50 998.7
20260505011906 35 139 1.6 6.4 0.00 0.00 0.00 50 998.7
20260505011805 35 0 0.0 4.8 0.00 0.00 0.00 50 998.7
20260505011706 35 0 0.0 4.8 0.00 0.00 0.00 50 998.8
20260505011627 35 0 0.0 4.8 0.00 0.00 0.00 50 998.8
20260505011505 35 138 1.6 4.8 0.00 0.00 0.00 50 998.7
20260505011406 35 138 1.6 4.8 0.00 0.00 0.00 50 998.8
20260505011306 35 143 1.6 4.8 0.00 0.00 0.00 50 998.7
20260505011206 35 151 1.6 4.8 0.00 0.00 0.00 50 998.8
20260505011106 36 155 1.6 4.8 0.00 0.00 0.00 50 998.8
20260505011006 36 165 0.0 4.8 0.00 0.00 0.00 50 998.8
20260505010906 36 176 0.0 4.8 0.00 0.00 0.00 50 998.8
20260505010806 36 0 0.0 4.8 0.00 0.00 0.00 50 998.9
20260505010706 36 184 0.0 4.8 0.00 0.00 0.00 50 998.8
20260505010627 35 188 1.6 4.8 0.00 0.00 0.00 50 998.8
20260505010505 35 194 0.0 4.8 0.00 0.00 0.00 50 998.8
20260505010406 36 0 0.0 6.4 0.00 0.00 0.00 50 998.9
20260505010327 36 0 0.0 6.4 0.00 0.00 0.00 50 998.9
20260505010205 36 0 0.0 6.4 0.00 0.00 0.00 50 998.7
20260505010106 36 0 0.0 8.0 0.00 0.00 0.00 50 998.8
20260505010006 36 169 1.6 8.0 0.00 0.00 0.00 50 998.9
20260505005906 36 166 1.6 8.0 0.00 0.00 0.00 50 998.8
20260505005806 36 0 0.0 8.0 0.00 0.00 0.00 50 998.8
20260505005706 36 0 0.0 8.0 0.00 0.00 0.00 50 998.9
20260505005606 36 0 0.0 8.0 0.00 0.00 0.00 50 998.9
20260505005506 36 161 0.0 8.0 0.00 0.00 0.00 50 998.8
20260505005427 36 154 1.6 8.0 0.00 0.00 0.00 50 998.8
20260505005306 36 149 1.6 8.0 0.00 0.00 0.00 50 998.8
20260505005206 36 139 1.6 8.0 0.00 0.00 0.00 50 998.9
20260505005106 36 138 0.0 6.4 0.00 0.00 0.00 50 998.9
20260505005006 36 135 1.6 6.4 0.00 0.00 0.00 50 999.0
20260505004905 36 0 0.0 6.4 0.00 0.00 0.00 50 999.0
20260505004806 36 0 0.0 6.4 0.00 0.00 0.00 50 998.9
20260505004706 36 0 0.0 6.4 0.00 0.00 0.00 50 999.0
20260505004606 36 126 0.0 6.4 0.00 0.00 0.00 50 998.9
20260505004506 36 131 1.6 6.4 0.00 0.00 0.00 50 998.9
20260505004406 36 138 0.0 6.4 0.00 0.00 0.00 50 999.0
20260505004305 36 143 0.0 6.4 0.00 0.00 0.00 50 999.0
20260505004206 36 142 0.0 6.4 0.00 0.00 0.00 50 998.9
20260505004106 36 0 0.0 6.4 0.00 0.00 0.00 50 999.0
20260505004006 36 160 1.6 6.4 0.00 0.00 0.00 50 998.9
20260505003906 36 0 0.0 6.4 0.00 0.00 0.00 50 999.0
20260505003806 35 0 0.0 6.4 0.00 0.00 0.00 50 998.9
20260505003706 35 166 1.6 6.4 0.00 0.00 0.00 50 999.0
20260505003606 35 167 3.2 6.4 0.00 0.00 0.00 50 998.9
20260505003506 36 167 1.6 6.4 0.00 0.00 0.00 50 998.9
20260505003406 36 167 1.6 6.4 0.00 0.00 0.00 50 999.0
20260505003306 36 171 1.6 6.4 0.00 0.00 0.00 50 999.0
20260505003206 36 181 1.6 6.4 0.00 0.00 0.00 50 999.0
20260505003106 36 180 1.6 6.4 0.00 0.00 0.00 50 999.1
20260505003006 36 175 1.6 6.4 0.00 0.00 0.00 50 999.0
20260505002906 36 175 1.6 6.4 0.00 0.00 0.00 50 999.0
20260505002827 36 175 3.2 6.4 0.00 0.00 0.00 50 999.0
20260505002705 36 174 1.6 6.4 0.00 0.00 0.00 50 999.1
20260505002606 36 171 0.0 6.4 0.00 0.00 0.00 50 999.1
20260505002506 36 173 1.6 6.4 0.00 0.00 0.00 50 999.0
20260505002406 36 176 0.0 6.4 0.00 0.00 0.00 50 999.0
20260505002305 36 176 1.6 6.4 0.00 0.00 0.00 50 999.0
20260505002206 36 170 0.0 6.4 0.00 0.00 0.00 50 999.0
20260505002106 36 158 1.6 6.4 0.00 0.00 0.00 50 999.2
20260505002006 36 156 0.0 6.4 0.00 0.00 0.00 50 999.0
20260505001906 36 153 1.6 4.8 0.00 0.00 0.00 50 999.1
20260505001827 37 155 1.6 4.8 0.00 0.00 0.00 50 999.2
20260505001705 37 152 0.0 6.4 0.00 0.00 0.00 50 999.2
20260505001606 36 0 0.0 6.4 0.00 0.00 0.00 50 999.0
20260505001506 36 0 0.0 6.4 0.00 0.00 0.00 50 999.0
20260505001406 36 0 0.0 8.0 0.00 0.00 0.00 50 999.2
20260505001306 36 0 0.0 9.7 0.00 0.00 0.00 50 999.1
20260505001206 36 164 1.6 9.7 0.00 0.00 0.00 50 999.0
20260505001126 36 168 1.6 9.7 0.00 0.00 0.00 50 999.1
20260505001006 36 0 0.0 9.7 0.00 0.00 0.00 50 999.1
20260505000906 36 175 1.6 9.7 0.00 0.00 0.00 50 999.2
20260505000806 36 172 3.2 9.7 0.00 0.00 0.00 50 999.2
20260505000706 36 177 0.0 9.7 0.00 0.00 0.00 50 999.1
20260505000606 36 173 0.0 9.7 0.00 0.00 0.00 50 999.1
20260505000506 36 165 3.2 9.7 0.00 0.00 0.00 50 999.1
20260505000406 36 162 3.2 9.7 0.00 0.00 0.00 50 999.1
20260505000306 35 165 1.6 8.0 0.00 0.00 0.00 50 999.2
20260505000206 35 167 1.6 8.0 0.00 0.00 0.00 50 999.2
20260505000105 35 160 1.6 8.0 0.00 0.00 0.00 50 999.2
20260505000006 35 159 0.0 8.0 0.00 0.00 0.00 50 999.1
20260504235906 35 0 0.0 8.0 0.00 0.00 0.00 50 999.3
20260504235806 35 159 1.6 8.0 0.00 0.00 0.00 50 999.2
20260504235706 35 160 3.2 8.0 0.00 0.00 0.00 50 999.2
20260504235606 35 163 3.2 8.0 0.00 0.00 0.00 50 999.0
20260504235505 35 167 3.2 8.0 0.00 0.00 0.00 50 999.3
20260504235406 35 169 3.2 8.0 0.00 0.00 0.00 50 999.2
20260504235306 35 170 3.2 8.0 0.00 0.00 0.00 50 999.1
20260504235205 35 163 1.6 8.0 0.00 0.00 0.00 50 999.2
20260504235106 35 162 0.0 6.4 0.00 0.00 0.00 50 999.2
20260504235006 35 156 0.0 8.0 0.00 0.00 0.00 50 999.2
20260504234906 35 149 1.6 8.0 0.00 0.00 0.00 50 999.2
20260504234827 35 145 3.2 8.0 0.00 0.00 0.00 50 999.2
20260504234706 35 145 3.2 11.3 0.00 0.00 0.00 50 999.3
20260504234606 35 144 3.2 11.3 0.00 0.00 0.00 50 999.4
20260504234506 35 146 1.6 11.3 0.00 0.00 0.00 50 999.4
20260504234406 35 148 1.6 11.3 0.00 0.00 0.00 50 999.4
20260504234306 35 147 3.2 11.3 0.00 0.00 0.00 50 999.2
20260504234205 35 157 3.2 11.3 0.00 0.00 0.00 50 999.3
20260504234106 35 163 4.8 11.3 0.00 0.00 0.00 50 999.2
20260504234006 35 170 4.8 11.3 0.00 0.00 0.00 50 999.4
20260504233905 35 185 3.2 11.3 0.00 0.00 0.00 50 999.3
20260504233806 35 190 3.2 11.3 0.00 0.00 0.00 50 999.3
20260504233727 35 0 0.0 8.0 0.00 0.00 0.00 50 999.2
20260504233606 35 187 1.6 8.0 0.00 0.00 0.00 50 999.3
20260504233526 35 188 1.6 8.0 0.00 0.00 0.00 50 999.2
20260504233406 35 187 1.6 8.0 0.00 0.00 0.00 50 999.4
20260504233306 35 0 0.0 8.0 0.00 0.00 0.00 50 999.1
20260504233227 35 0 0.0 8.0 0.00 0.00 0.00 50 999.3
20260504233106 35 0 0.0 8.0 0.00 0.00 0.00 50 999.3
20260504233027 35 0 0.0 8.0 0.00 0.00 0.00 50 999.3
20260504232906 35 201 1.6 8.0 0.00 0.00 0.00 50 999.3
20260504232806 35 205 4.8 8.0 0.00 0.00 0.00 50 999.3
20260504232727 35 214 3.2 8.0 0.00 0.00 0.00 50 999.3
20260504232626 35 214 1.6 6.4 0.00 0.00 0.00 50 999.3
20260504232506 35 213 1.6 6.4 0.00 0.00 0.00 50 999.4
20260504232406 35 213 1.6 6.4 0.00 0.00 0.00 50 999.4
20260504232305 35 207 3.2 6.4 0.00 0.00 0.00 50 999.4
20260504232227 35 205 1.6 6.4 0.00 0.00 0.00 50 999.2
20260504232127 35 203 0.0 4.8 0.00 0.00 0.00 50 999.3
20260504232005 35 208 0.0 4.8 0.00 0.00 0.00 50 999.3
20260504231905 35 0 0.0 4.8 0.00 0.00 0.00 50 999.4
20260504231806 35 0 0.0 4.8 0.00 0.00 0.00 50 999.3
20260504231727 35 211 0.0 4.8 0.00 0.00 0.00 50 999.3
20260504231605 35 212 1.6 4.8 0.00 0.00 0.00 50 999.5
20260504231506 35 190 1.6 4.8 0.00 0.00 0.00 50 999.4
20260504231406 35 0 0.0 8.0 0.00 0.00 0.00 50 999.4
20260504231305 35 128 1.6 8.0 0.00 0.00 0.00 50 999.4
20260504231206 35 121 0.0 8.0 0.00 0.00 0.00 50 999.4
20260504231106 35 0 0.0 8.0 0.00 0.00 0.00 50 999.5
20260504231027 34 0 0.0 8.0 0.00 0.00 0.00 50 999.4
20260504230906 34 0 0.0 8.0 0.00 0.00 0.00 50 999.5
20260504230806 34 0 0.0 14.5 0.00 0.00 0.00 50 999.5
20260504230706 34 121 0.0 14.5 0.00 0.00 0.00 50 999.5
20260504230605 34 122 1.6 14.5 0.00 0.00 0.00 50 999.3
20260504230506 33 128 4.8 14.5 0.00 0.00 0.00 50 999.5
20260504230405 33 138 3.2 14.5 0.00 0.00 0.00 50 999.5
20260504230306 33 146 3.2 14.5 0.00 0.00 0.00 50 999.5
20260504230206 33 150 3.2 14.5 0.00 0.00 0.00 50 999.5
20260504230127 34 150 3.2 14.5 0.00 0.00 0.00 50 999.6
20260504230006 34 151 3.2 14.5 0.00 0.00 0.00 50 999.5
20260504225906 34 154 1.6 14.5 0.00 0.00 0.00 50 999.5
20260504225806 34 159 4.8 14.5 0.00 0.00 0.00 50 999.5
20260504225705 34 171 0.0 8.0 0.00 0.00 0.00 50 999.5
20260504225606 34 173 1.6 8.0 0.00 0.00 0.00 50 999.5
20260504225506 34 170 1.6 8.0 0.00 0.00 0.00 50 999.5
20260504225406 34 165 3.2 8.0 0.00 0.00 0.00 50 999.5
20260504225327 34 162 1.6 8.0 0.00 0.00 0.00 50 999.5
20260504225206 34 156 3.2 8.0 0.00 0.00 0.00 50 999.6
20260504225105 34 157 0.0 8.0 0.00 0.00 0.00 50 999.6
20260504225006 34 152 3.2 8.0 0.00 0.00 0.00 50 999.7
20260504224906 34 142 3.2 8.0 0.00 0.00 0.00 50 999.5
20260504224805 34 139 3.2 8.0 0.00 0.00 0.00 50 999.7
20260504224705 34 142 3.2 8.0 0.00 0.00 0.00 50 999.6
20260504224606 33 139 1.6 8.0 0.00 0.00 0.00 50 999.7
20260504224506 33 0 0.0 8.0 0.00 0.00 0.00 50 999.6
20260504224405 33 133 1.6 8.0 0.00 0.00 0.00 50 999.5
20260504224306 33 136 1.6 8.0 0.00 0.00 0.00 50 999.6
20260504224206 33 145 1.6 8.0 0.00 0.00 0.00 50 999.8
20260504224105 33 147 3.2 8.0 0.00 0.00 0.00 50 999.7
20260504224027 33 153 4.8 8.0 0.00 0.00 0.00 50 999.7
20260504223906 34 176 1.6 8.0 0.00 0.00 0.00 50 999.8
20260504223806 34 182 4.8 8.0 0.00 0.00 0.00 50 999.8
20260504223706 34 172 1.6 8.0 0.00 0.00 0.00 50 999.8
20260504223606 34 166 0.0 6.4 0.00 0.00 0.00 50 999.7
20260504223505 34 166 1.6 6.4 0.00 0.00 0.00 50 999.6
20260504223405 33 0 0.0 6.4 0.00 0.00 0.00 50 999.8
20260504223306 34 0 0.0 9.7 0.00 0.00 0.00 50 999.7
20260504223205 34 157 0.0 9.7 0.00 0.00 0.00 50 999.8
20260504223105 34 159 1.6 9.7 0.00 0.00 0.00 50 999.8
20260504223006 34 0 0.0 9.7 0.00 0.00 0.00 50 999.7
20260504222906 34 0 0.0 9.7 0.00 0.00 0.00 50 999.7
20260504222805 34 152 1.6 9.7 0.00 0.00 0.00 50 999.9
20260504222706 34 147 3.2 9.7 0.00 0.00 0.00 50 999.9
20260504222606 34 146 1.6 9.7 0.00 0.00 0.00 50 1000.0
20260504222506 34 143 3.2 9.7 0.00 0.00 0.00 50 999.9
20260504222406 34 138 3.2 9.7 0.00 0.00 0.00 50 999.9
20260504222306 34 148 3.2 9.7 0.00 0.00 0.00 50 1000.0
20260504222206 34 156 1.6 8.0 0.00 0.00 0.00 50 999.9
20260504222106 34 0 0.0 8.0 0.00 0.00 0.00 50 1000.0
20260504222027 34 0 0.0 8.0 0.00 0.00 0.00 50 999.9
20260504221906 34 148 3.2 8.0 0.00 0.00 0.00 50 999.9
20260504221806 34 147 3.2 8.0 0.00 0.00 0.00 50 999.9
20260504221706 34 145 1.6 8.0 0.00 0.00 0.00 50 999.9
20260504221606 34 148 0.0 8.0 0.00 0.00 0.00 50 999.9
20260504221527 34 0 0.0 6.4 0.00 0.00 0.00 50 1000.0
20260504221406 34 145 0.0 6.4 0.00 0.00 0.00 50 1000.0
20260504221306 33 140 1.6 6.4 0.00 0.00 0.00 50 1000.0
20260504221206 33 133 1.6 6.4 0.00 0.00 0.00 50 1000.0
20260504221127 33 128 0.0 8.0 0.00 0.00 0.00 50 1000.0
20260504221006 33 123 0.0 9.7 0.00 0.00 0.00 50 1000.2
20260504220905 33 123 1.6 9.7 0.00 0.00 0.00 50 1000.2
20260504220806 33 126 1.6 9.7 0.00 0.00 0.00 50 1000.3
20260504220706 33 130 1.6 9.7 0.00 0.00 0.00 50 1000.1
20260504220606 33 130 0.0 9.7 0.00 0.00 0.00 50 1000.2
20260504220505 33 122 1.6 12.9 0.00 0.00 0.00 50 1000.1
20260504220406 33 122 1.6 12.9 0.00 0.00 0.00 50 1000.3
20260504220305 33 124 3.2 12.9 0.00 0.00 0.00 50 1000.3
20260504220206 33 125 3.2 12.9 0.00 0.00 0.00 50 1000.2
20260504220106 33 133 3.2 12.9 0.00 0.00 0.00 50 1000.2
20260504220006 33 142 1.6 12.9 0.00 0.00 0.00 50 1000.2
20260504215926 33 148 1.6 12.9 0.00 0.00 0.00 50 1000.2
20260504215806 33 149 1.6 12.9 0.00 0.00 0.00 50 1000.3
20260504215706 33 150 3.2 12.9 0.00 0.00 0.00 50 1000.2
20260504215626 33 152 4.8 12.9 0.00 0.00 0.00 50 1000.3
20260504215527 33 162 3.2 12.9 0.00 0.00 0.00 50 1000.3
20260504215406 33 160 0.0 11.3 0.00 0.00 0.00 50 1000.3
20260504215306 33 0 0.0 11.3 0.00 0.00 0.00 50 1000.3
20260504215206 33 147 1.6 11.3 0.00 0.00 0.00 50 1000.4
20260504215106 33 147 1.6 12.9 0.00 0.00 0.00 50 1000.3
20260504215006 33 139 1.6 12.9 0.00 0.00 0.00 50 1000.3
20260504214906 33 125 3.2 12.9 0.00 0.00 0.00 50 1000.4
20260504214806 33 123 3.2 12.9 0.00 0.00 0.00 50 1000.5
20260504214705 33 123 1.6 12.9 0.00 0.00 0.00 50 1000.7
20260504214606 33 131 1.6 12.9 0.00 0.00 0.00 50 1000.3
20260504214506 33 139 3.2 12.9 0.00 0.00 0.00 50 1000.5
20260504214405 33 143 4.8 12.9 0.00 0.00 0.00 50 1000.4
20260504214305 33 153 3.2 12.9 0.00 0.00 0.00 50 1000.5
20260504214206 33 154 4.8 12.9 0.00 0.00 0.00 50 1000.5
20260504214105 33 153 6.4 12.9 0.00 0.00 0.00 50 1000.5
20260504214006 33 156 6.4 12.9 0.00 0.00 0.00 50 1000.5
20260504213906 33 171 4.8 12.9 0.00 0.00 0.00 50 1000.5
20260504213827 33 175 4.8 12.9 0.00 0.00 0.00 50 1000.5
20260504213726 34 185 3.2 12.9 0.00 0.00 0.00 50 1000.6
20260504213627 34 181 4.8 12.9 0.00 0.00 0.00 50 1000.5
20260504213527 34 185 1.6 12.9 0.00 0.00 0.00 50 1000.6
20260504213427 34 190 0.0 12.9 0.00 0.00 0.00 50 1000.5
20260504213305 33 174 3.2 8.0 0.00 0.00 0.00 50 1000.6
20260504213227 33 155 3.2 8.0 0.00 0.00 0.00 50 1000.7
20260504213126 33 142 3.2 8.0 0.00 0.00 0.00 50 1000.5
20260504213006 34 121 3.2 6.4 0.00 0.00 0.00 50 1000.7
20260504212906 34 125 3.2 6.4 0.00 0.00 0.00 50 1000.5
20260504212805 34 130 0.0 6.4 0.00 0.00 0.00 50 1000.5
20260504212705 34 129 1.6 6.4 0.00 0.00 0.00 50 1000.6
20260504212605 34 127 1.6 6.4 0.00 0.00 0.00 50 1000.7
20260504212506 34 124 3.2 6.4 0.00 0.00 0.00 50 1000.9
20260504212426 34 132 1.6 6.4 0.00 0.00 0.00 50 1000.7
20260504212306 34 149 1.6 6.4 0.00 0.00 0.00 50 1000.7
20260504212206 34 173 1.6 6.4 0.00 0.00 0.00 50 1000.7
20260504212105 34 187 0.0 6.4 0.00 0.00 0.00 50 1000.8
20260504212006 33 194 1.6 6.4 0.00 0.00 0.00 50 1000.8
20260504211906 33 0 0.0 6.4 0.00 0.00 0.00 50 1000.8
20260504211805 33 0 0.0 6.4 0.00 0.00 0.00 50 1001.0
20260504211727 33 0 0.0 6.4 0.00 0.00 0.00 50 1000.8
20260504211606 33 0 0.0 6.4 0.00 0.00 0.00 50 1000.8
20260504211506 33 0 0.0 6.4 0.00 0.00 0.00 50 1000.9
20260504211405 33 175 0.0 8.0 0.00 0.00 0.00 50 1000.8
20260504211306 33 168 1.6 8.0 0.00 0.00 0.00 50 1001.0
20260504211205 33 173 0.0 8.0 0.00 0.00 0.00 50 1001.0
20260504211106 33 0 0.0 8.0 0.00 0.00 0.00 50 1001.0
20260504211006 33 0 0.0 8.0 0.00 0.00 0.00 50 1001.0
20260504210906 32 155 0.0 8.0 0.00 0.00 0.00 50 1001.0
20260504210806 32 158 1.6 8.0 0.00 0.00 0.00 50 1001.0
20260504210727 32 154 0.0 8.0 0.00 0.00 0.00 50 1001.0
20260504210627 32 150 1.6 8.0 0.00 0.00 0.00 50 1001.0
20260504210505 32 147 1.6 8.0 0.00 0.00 0.00 50 1000.9
20260504210406 32 153 4.8 8.0 0.00 0.00 0.00 50 1001.0
20260504210306 32 161 3.2 6.4 0.00 0.00 0.00 50 1001.0
20260504210205 32 157 3.2 6.4 0.00 0.00 0.00 50 1001.0
20260504210105 33 155 3.2 6.4 0.00 0.00 0.00 50 1001.1
20260504210006 33 161 3.2 6.4 0.00 0.00 0.00 50 1001.0
20260504205905 33 174 3.2 6.4 0.00 0.00 0.00 50 1001.2
20260504205805 33 166 3.2 6.4 0.00 0.00 0.00 50 1001.1
20260504205727 33 164 3.2 6.4 0.00 0.00 0.00 50 1001.2
20260504205605 33 164 1.6 6.4 0.00 0.00 0.00 50 1001.2
20260504205505 33 179 1.6 4.8 0.00 0.00 0.00 50 1001.0
20260504205406 33 160 1.6 4.8 0.00 0.00 0.00 50 1001.1
20260504205305 33 161 1.6 6.4 0.00 0.00 0.00 50 1001.1
20260504205205 33 138 0.0 6.4 0.00 0.00 0.00 50 1001.1
20260504205105 32 0 0.0 6.4 0.00 0.00 0.00 50 1001.2
20260504205027 32 0 0.0 6.4 0.00 0.00 0.00 50 1001.2
20260504204905 32 126 1.6 6.4 0.00 0.00 0.00 50 1001.2
20260504204805 32 120 3.2 12.9 0.00 0.00 0.00 50 1001.1
20260504204706 32 116 3.2 12.9 0.00 0.00 0.00 50 1001.1
20260504204605 32 121 0.0 12.9 0.00 0.00 0.00 50 1001.1
20260504204505 32 108 1.6 12.9 0.00 0.00 0.00 50 1001.3
20260504204406 32 105 3.2 12.9 0.00 0.00 0.00 50 1001.2
20260504204306 32 109 1.6 12.9 0.00 0.00 0.00 50 1001.1
20260504204205 32 123 0.0 12.9 0.00 0.00 0.00 50 1001.3
20260504204106 32 0 0.0 12.9 0.00 0.00 0.00 50 1001.2
20260504204005 32 0 0.0 12.9 0.00 0.00 0.00 50 1001.3
20260504203906 32 126 4.8 12.9 0.00 0.00 0.00 51 1001.2
20260504203806 32 132 4.8 12.9 0.00 0.00 0.00 51 1001.3
20260504203705 32 145 3.2 8.0 0.00 0.00 0.00 51 1001.2
20260504203605 32 144 3.2 11.3 0.00 0.00 0.00 51 1001.4
20260504203505 32 159 1.6 11.3 0.00 0.00 0.00 51 1001.4
20260504203427 32 160 1.6 12.9 0.00 0.00 0.00 51 1001.4
20260504203305 32 155 3.2 12.9 0.00 0.00 0.00 51 1001.3
20260504203205 32 152 4.8 12.9 0.00 0.00 0.00 51 1001.4
20260504203106 32 146 1.6 12.9 0.00 0.00 0.00 51 1001.4
20260504203005 32 0 0.0 12.9 0.00 0.00 0.00 50 1001.4
20260504202906 32 0 0.0 12.9 0.00 0.00 0.00 50 1001.5
20260504202806 32 139 1.6 12.9 0.00 0.00 0.00 50 1001.5
20260504202705 32 135 3.2 12.9 0.00 0.00 0.00 50 1001.4
20260504202605 32 133 4.8 12.9 0.00 0.00 0.00 50 1001.4
20260504202506 32 129 4.8 12.9 0.00 0.00 0.00 50 1001.4
20260504202405 32 125 1.6 12.9 0.00 0.00 0.00 50 1001.5
20260504202305 32 124 1.6 11.3 0.00 0.00 0.00 50 1001.4
20260504202206 32 126 1.6 11.3 0.00 0.00 0.00 50 1001.4
20260504202105 32 130 1.6 9.7 0.00 0.00 0.00 50 1001.5